FW6030 Weather Reports


time (UTC)temp
C
wind
direction
speed
KPH
gust
KPH
rain 1hr
cm
rain 24hr
cm
rain mn
cm
humidity
%
barometer
mb
20260902093033 26 161 1.6 4.8 0.00 0.00 0.00 76 1015.8
20260902092932 26 161 1.6 4.8 0.00 0.00 0.00 76 1015.8
20260902092834 26 161 1.6 4.8 0.00 0.00 0.00 76 1015.7
20260902092733 26 161 3.2 4.8 0.00 0.00 0.00 76 1015.8
20260902092634 26 161 3.2 4.8 0.00 0.00 0.00 76 1015.7
20260902092519 26 161 3.2 4.8 0.00 0.00 0.00 76 1015.8
20260902092438 26 153 3.2 8.0 0.00 0.00 0.00 76 1015.8
20260902092318 26 360 3.2 8.0 0.00 0.00 0.00 76 1015.8
20260902092219 26 360 3.2 8.0 0.00 0.00 0.00 76 1015.8
20260902092119 26 360 1.6 8.0 0.00 0.00 0.00 76 1015.9
20260902092020 26 360 1.6 8.0 0.00 0.00 0.00 76 1015.8
20260902091921 26 360 1.6 8.0 0.00 0.00 0.00 76 1015.8
20260902091826 26 360 3.2 8.0 0.00 0.00 0.00 76 1015.9
20260902091727 26 152 3.2 8.0 0.00 0.00 0.00 75 1015.8
20260902091628 26 360 3.2 8.0 0.00 0.00 0.00 75 1015.9
20260902091528 26 360 1.6 4.8 0.00 0.00 0.00 75 1015.8
20260902091448 26 360 1.6 4.8 0.00 0.00 0.00 75 1015.8
20260902091328 26 152 3.2 4.8 0.00 0.00 0.00 76 1015.8
20260902091229 26 152 3.2 8.0 0.00 0.00 0.00 76 1015.9
20260902091150 26 360 3.2 8.0 0.00 0.00 0.00 77 1015.9
20260902091034 26 360 3.2 8.0 0.00 0.00 0.00 77 1015.9
20260902090934 26 360 3.2 8.0 0.00 0.00 0.00 76 1015.9
20260902090834 26 360 3.2 8.0 0.00 0.00 0.00 76 1015.9
20260902090734 26 152 3.2 8.0 0.00 0.00 0.00 75 1015.9
20260902090635 26 360 3.2 8.0 0.00 0.00 0.00 75 1015.9
20260902090536 26 151 3.2 8.0 0.00 0.00 0.00 75 1015.9
20260902090419 26 360 4.8 8.0 0.00 0.00 0.00 75 1016.0
20260902090320 26 152 3.2 8.0 0.00 0.00 0.00 75 1015.9
20260902090221 26 360 3.2 4.8 0.00 0.00 0.00 75 1015.9
20260902090121 26 360 3.2 4.8 0.00 0.00 0.00 75 1015.9
20260902090041 26 360 1.6 4.8 0.00 0.00 0.00 75 1015.9
20260902085941 26 360 1.6 4.8 0.00 0.00 0.00 75 1015.9
20260902085842 26 360 1.6 4.8 0.00 0.00 0.00 75 1015.9
20260902085719 26 360 3.2 4.8 0.00 0.00 0.00 75 1015.9
20260902085624 26 360 3.2 4.8 0.00 0.00 0.00 75 1015.9
20260902085544 26 360 3.2 4.8 0.00 0.00 0.00 75 1016.0
20260902085444 26 184 3.2 4.8 0.00 0.00 0.00 75 1015.9
20260902085324 26 360 3.2 4.8 0.00 0.00 0.00 75 1015.9
20260902085224 26 184 3.2 6.4 0.00 0.00 0.00 74 1015.9
20260902085124 26 360 3.2 6.4 0.00 0.00 0.00 74 1015.9
20260902085027 26 360 3.2 6.4 0.00 0.00 0.00 74 1015.9
20260902084932 26 360 3.2 6.4 0.00 0.00 0.00 74 1015.8
20260902084832 26 184 3.2 6.4 0.00 0.00 0.00 74 1015.9
20260902084733 26 360 1.6 6.4 0.00 0.00 0.00 74 1015.9
20260902084634 26 360 3.2 6.4 0.00 0.00 0.00 74 1015.9
20260902084535 26 184 3.2 6.4 0.00 0.00 0.00 74 1015.9
20260902084435 26 360 3.2 6.4 0.00 0.00 0.00 74 1015.9
20260902084320 26 360 3.2 6.4 0.00 0.00 0.00 74 1016.0
20260902084220 26 360 1.6 6.4 0.00 0.00 0.00 74 1015.9
20260902084121 26 360 1.6 12.9 0.00 0.00 0.00 74 1016.0
20260902084042 26 360 3.2 12.9 0.00 0.00 0.00 74 1015.9
20260902083922 26 360 3.2 12.9 0.00 0.00 0.00 74 1016.0
20260902083821 26 360 3.2 12.9 0.00 0.00 0.00 74 1015.9
20260902083723 26 360 3.2 12.9 0.00 0.00 0.00 74 1015.9
20260902083628 26 360 3.2 12.9 0.00 0.00 0.00 74 1015.9
20260902083549 26 360 1.6 12.9 0.00 0.00 0.00 74 1015.9
20260902083427 26 360 1.6 12.9 0.00 0.00 0.00 74 1015.9
20260902083327 26 360 3.2 12.9 0.00 0.00 0.00 73 1015.8
20260902083226 26 360 3.2 12.9 0.00 0.00 0.00 73 1015.9
20260902083126 26 360 3.2 12.9 0.00 0.00 0.00 73 1015.9
20260902083028 26 360 3.2 12.9 0.00 0.00 0.00 73 1015.8
20260902082928 26 360 4.8 12.9 0.00 0.00 0.00 73 1015.8
20260902082830 26 360 6.4 12.9 0.00 0.00 0.00 73 1015.8
20260902082734 26 360 4.8 12.9 0.00 0.00 0.00 73 1015.8
20260902082653 26 360 4.8 9.7 0.00 0.00 0.00 73 1015.8
20260902082533 26 360 3.2 9.7 0.00 0.00 0.00 73 1015.7
20260902082433 26 360 3.2 9.7 0.00 0.00 0.00 73 1015.8
20260902082334 26 360 3.2 9.7 0.00 0.00 0.00 73 1015.7
20260902082234 26 360 3.2 9.7 0.00 0.00 0.00 73 1015.8
20260902082119 26 360 4.8 9.7 0.00 0.00 0.00 73 1015.9
20260902082039 26 360 4.8 9.7 0.00 0.00 0.00 73 1015.8
20260902081919 26 360 4.8 9.7 0.00 0.00 0.00 73 1015.8
20260902081819 26 360 3.2 6.4 0.00 0.00 0.00 73 1015.8
20260902081719 26 360 1.6 6.4 0.00 0.00 0.00 73 1015.9
20260902081639 26 360 1.6 6.4 0.00 0.00 0.00 73 1015.9
20260902081519 26 360 3.2 6.4 0.00 0.00 0.00 73 1015.9
20260902081419 26 360 3.2 6.4 0.00 0.00 0.00 73 1016.0
20260902081324 26 360 3.2 6.4 0.00 0.00 0.00 73 1016.0
20260902081244 26 360 1.6 6.4 0.00 0.00 0.00 73 1015.9
20260902081124 26 360 1.6 6.4 0.00 0.00 0.00 73 1016.0
20260902081024 26 360 1.6 6.4 0.00 0.00 0.00 73 1016.0
20260902080945 27 360 1.6 6.4 0.00 0.00 0.00 72 1016.0
20260902080824 27 360 1.6 6.4 0.00 0.00 0.00 72 1016.0
20260902080725 27 360 3.2 6.4 0.00 0.00 0.00 72 1016.0
20260902080645 27 360 3.2 6.4 0.00 0.00 0.00 72 1016.0
20260902080529 27 360 3.2 6.4 0.00 0.00 0.00 72 1016.0
20260902080430 27 360 3.2 6.4 0.00 0.00 0.00 72 1016.1
20260902080350 27 360 1.6 6.4 0.00 0.00 0.00 72 1016.1
20260902080229 27 360 1.6 4.8 0.00 0.00 0.00 72 1016.0
20260902080129 27 360 1.6 4.8 0.00 0.00 0.00 72 1016.0
20260902080049 27 360 1.6 4.8 0.00 0.00 0.00 72 1016.0
20260902075929 27 360 1.6 3.2 0.00 0.00 0.00 73 1016.0
20260902075830 27 360 1.6 3.2 0.00 0.00 0.00 73 1016.1
20260902075733 27 360 1.6 6.4 0.00 0.00 0.00 73 1016.0
20260902075634 27 360 1.6 6.4 0.00 0.00 0.00 72 1016.1
20260902075554 27 360 1.6 6.4 0.00 0.00 0.00 72 1016.0
20260902075433 27 175 1.6 6.4 0.00 0.00 0.00 72 1016.0
20260902075333 27 175 1.6 6.4 0.00 0.00 0.00 72 1016.0
20260902075234 27 360 1.6 6.4 0.00 0.00 0.00 72 1016.0
20260902075116 27 175 3.2 6.4 0.00 0.00 0.00 72 1016.0
20260902075040 27 360 3.2 6.4 0.00 0.00 0.00 72 1015.9
20260902074920 27 360 3.2 9.7 0.00 0.00 0.00 72 1016.0
20260902074820 27 360 3.2 9.7 0.00 0.00 0.00 72 1016.0
20260902074721 27 360 3.2 9.7 0.00 0.00 0.00 72 1016.0
20260902074620 27 175 1.6 9.7 0.00 0.00 0.00 72 1016.0
20260902074520 27 175 1.6 9.7 0.00 0.00 0.00 72 1016.0
20260902074422 27 360 1.6 9.7 0.00 0.00 0.00 72 1016.0
20260902074343 27 360 3.2 9.7 0.00 0.00 0.00 72 1016.0
20260902074227 27 360 3.2 9.7 0.00 0.00 0.00 72 1016.0
20260902074148 27 360 4.8 9.7 0.00 0.00 0.00 72 1016.0
20260902074027 27 360 3.2 8.0 0.00 0.00 0.00 72 1016.0
20260902073927 27 360 3.2 8.0 0.00 0.00 0.00 72 1015.9
20260902073827 27 360 3.2 8.0 0.00 0.00 0.00 72 1016.0
20260902073728 27 360 3.2 8.0 0.00 0.00 0.00 72 1016.0
20260902073649 27 360 3.2 8.0 0.00 0.00 0.00 72 1016.0
20260902073528 27 360 3.2 8.0 0.00 0.00 0.00 72 1016.0
20260902073452 27 360 3.2 12.9 0.00 0.00 0.00 72 1016.0
20260902073332 27 360 4.8 12.9 0.00 0.00 0.00 72 1016.0
20260902073234 27 360 4.8 12.9 0.00 0.00 0.00 72 1016.0
20260902073134 27 360 3.2 12.9 0.00 0.00 0.00 72 1016.0
20260902073034 27 360 3.2 12.9 0.00 0.00 0.00 72 1015.9
20260902072933 27 360 3.2 12.9 0.00 0.00 0.00 72 1016.0
20260902072835 27 360 4.8 12.9 0.00 0.00 0.00 72 1016.0
20260902072720 27 360 4.8 12.9 0.00 0.00 0.00 72 1016.0
20260902072620 27 360 4.8 12.9 0.00 0.00 0.00 72 1016.0
20260902072541 27 360 4.8 9.7 0.00 0.00 0.00 72 1016.0
20260902072421 27 360 4.8 9.7 0.00 0.00 0.00 72 1016.0
20260902072321 27 360 4.8 9.7 0.00 0.00 0.00 72 1016.0
20260902072222 27 360 3.2 9.7 0.00 0.00 0.00 72 1016.1
20260902072124 27 360 3.2 14.5 0.00 0.00 0.00 71 1016.0
20260902072023 27 360 3.2 14.5 0.00 0.00 0.00 72 1016.0
20260902071948 27 360 3.2 14.5 0.00 0.00 0.00 71 1016.0
20260902071827 27 360 3.2 14.5 0.00 0.00 0.00 72 1015.9
20260902071728 27 360 4.8 14.5 0.00 0.00 0.00 71 1016.0
20260902071649 27 360 3.2 14.5 0.00 0.00 0.00 71 1016.0
20260902071550 27 360 3.2 14.5 0.00 0.00 0.00 71 1016.0
20260902071449 27 360 4.8 9.7 0.00 0.00 0.00 71 1016.0
20260902071329 27 360 4.8 9.7 0.00 0.00 0.00 71 1016.0
20260902071230 27 360 3.2 9.7 0.00 0.00 0.00 71 1016.0
20260902071150 27 360 3.2 9.7 0.00 0.00 0.00 71 1016.1
20260902071034 27 360 3.2 9.7 0.00 0.00 0.00 71 1016.0
20260902070935 27 360 3.2 9.7 0.00 0.00 0.00 71 1016.1
20260902070816 27 360 3.2 9.7 0.00 0.00 0.00 71 1016.1
20260902070717 27 360 3.2 9.7 0.00 0.00 0.00 71 1016.1
20260902070617 27 360 3.2 9.7 0.00 0.00 0.00 71 1016.2
20260902070518 27 360 3.2 9.7 0.00 0.00 0.00 71 1016.2
20260902070422 27 360 4.8 9.7 0.00 0.00 0.00 71 1016.2
20260902070343 27 360 4.8 9.7 0.00 0.00 0.00 71 1016.1
20260902070216 27 360 3.2 16.1 0.00 0.00 0.00 71 1016.1
20260902070116 27 360 3.2 16.1 0.00 0.00 0.00 71 1016.1
20260902070017 27 360 3.2 16.1 0.00 0.00 0.00 71 1016.1
20260902065917 27 360 3.2 17.7 0.00 0.00 0.00 71 1016.1
20260902065818 27 360 3.2 17.7 0.00 0.00 0.00 71 1016.2
20260902065723 27 360 3.2 17.7 0.00 0.00 0.00 71 1016.1
20260902065623 27 360 4.8 17.7 0.00 0.00 0.00 71 1016.1
20260902065524 27 360 4.8 17.7 0.00 0.00 0.00 71 1016.1
20260902065425 27 360 4.8 17.7 0.00 0.00 0.00 71 1016.1
20260902065326 27 360 4.8 17.7 0.00 0.00 0.00 71 1016.0
20260902065226 27 360 6.4 17.7 0.00 0.00 0.00 71 1016.1
20260902065130 27 360 4.8 17.7 0.00 0.00 0.00 72 1016.1
20260902065032 27 360 4.8 17.7 0.00 0.00 0.00 72 1016.1
20260902064932 27 360 4.8 14.5 0.00 0.00 0.00 72 1016.1
20260902064832 27 360 4.8 14.5 0.00 0.00 0.00 72 1016.1
20260902064731 27 360 3.2 14.5 0.00 0.00 0.00 72 1016.1
20260902064632 27 360 3.2 14.5 0.00 0.00 0.00 73 1016.1
20260902064533 27 360 3.2 14.5 0.00 0.00 0.00 73 1016.1
20260902064417 27 360 3.2 14.5 0.00 0.00 0.00 72 1016.0
20260902064317 27 360 3.2 14.5 0.00 0.00 0.00 72 1016.1
20260902064217 27 360 3.2 14.5 0.00 0.00 0.00 72 1016.0
20260902064118 27 360 3.2 14.5 0.00 0.00 0.00 72 1016.0
20260902064038 27 360 4.8 16.1 0.00 0.00 0.00 72 1016.1
20260902063918 27 360 4.8 16.1 0.00 0.00 0.00 72 1016.1
20260902063819 27 360 4.8 16.1 0.00 0.00 0.00 72 1016.1
20260902063722 27 360 3.2 16.1 0.00 0.00 0.00 72 1016.1
20260902063623 27 360 3.2 16.1 0.00 0.00 0.00 72 1016.1
20260902063543 27 360 1.6 16.1 0.00 0.00 0.00 72 1016.1
20260902063416 27 360 3.2 16.1 0.00 0.00 0.00 72 1016.0
20260902063317 27 360 4.8 16.1 0.00 0.00 0.00 72 1016.1
20260902063218 27 360 4.8 16.1 0.00 0.00 0.00 72 1016.1
20260902063122 27 360 4.8 16.1 0.00 0.00 0.00 72 1016.1
20260902063043 27 360 4.8 16.1 0.00 0.00 0.00 72 1016.1
20260902062922 27 360 4.8 16.1 0.00 0.00 0.00 72 1016.1
20260902062824 27 360 4.8 16.1 0.00 0.00 0.00 72 1016.1
20260902062722 27 360 3.2 16.1 0.00 0.00 0.00 72 1016.1
20260902062622 27 360 4.8 16.1 0.00 0.00 0.00 72 1016.2
20260902062523 27 360 4.8 16.1 0.00 0.00 0.00 72 1016.0
20260902062444 27 360 4.8 16.1 0.00 0.00 0.00 73 1016.2
20260902062327 27 360 3.2 14.5 0.00 0.00 0.00 72 1016.1
20260902062228 27 360 3.2 14.5 0.00 0.00 0.00 72 1016.1
20260902062129 27 360 4.8 14.5 0.00 0.00 0.00 73 1016.1
20260902062050 27 360 4.8 12.9 0.00 0.00 0.00 73 1016.1
20260902061929 27 360 4.8 14.5 0.00 0.00 0.00 73 1016.1
20260902061848 27 360 3.2 14.5 0.00 0.00 0.00 73 1016.1
20260902061728 27 360 3.2 14.5 0.00 0.00 0.00 72 1016.0
20260902061633 27 360 3.2 14.5 0.00 0.00 0.00 72 1016.0
20260902061532 27 360 3.2 14.5 0.00 0.00 0.00 72 1016.1
20260902061434 27 360 3.2 14.5 0.00 0.00 0.00 72 1016.1
20260902061335 27 360 4.8 14.5 0.00 0.00 0.00 72 1016.1
20260902061235 27 360 4.8 14.5 0.00 0.00 0.00 72 1016.1
20260902061136 27 360 4.8 14.5 0.00 0.00 0.00 72 1016.1
20260902061020 27 360 4.8 16.1 0.00 0.00 0.00 72 1016.1
20260902060940 27 360 4.8 16.1 0.00 0.00 0.00 72 1016.2
20260902060819 27 360 4.8 16.1 0.00 0.00 0.00 72 1016.1
20260902060720 27 360 4.8 16.1 0.00 0.00 0.00 72 1016.1
20260902060620 27 360 4.8 16.1 0.00 0.00 0.00 72 1016.1
20260902060520 27 360 4.8 20.9 0.00 0.00 0.00 72 1016.1
20260902060442 27 360 4.8 20.9 0.00 0.00 0.00 72 1016.0
20260902060322 27 360 4.8 20.9 0.00 0.00 0.00 72 1016.1
20260902060226 28 360 6.4 20.9 0.00 0.00 0.00 72 1016.1
20260902060127 28 360 6.4 20.9 0.00 0.00 0.00 72 1016.1
20260902060027 28 360 4.8 20.9 0.00 0.00 0.00 72 1016.0
20260902055927 28 360 3.2 20.9 0.00 0.00 0.00 72 1016.1
20260902055849 28 360 3.2 20.9 0.00 0.00 0.00 72 1016.0
20260902055724 28 360 4.8 20.9 0.00 0.00 0.00 72 1016.1
20260902055624 28 360 4.8 20.9 0.00 0.00 0.00 72 1016.1
20260902055524 28 360 4.8 20.9 0.00 0.00 0.00 72 1016.1
20260902055449 28 360 3.2 20.9 0.00 0.00 0.00 72 1016.1
20260902055328 28 360 4.8 19.3 0.00 0.00 0.00 72 1016.1
20260902055229 28 360 6.4 19.3 0.00 0.00 0.00 72 1016.1
20260902055150 28 360 8.0 19.3 0.00 0.00 0.00 72 1016.1
20260902055050 28 360 9.7 19.3 0.00 0.00 0.00 72 1016.2
20260902054928 28 360 6.4 19.3 0.00 0.00 0.00 72 1016.1
20260902054828 28 360 8.0 19.3 0.00 0.00 0.00 72 1016.1
20260902054729 28 360 6.4 19.3 0.00 0.00 0.00 72 1016.1
20260902054650 28 360 8.0 19.3 0.00 0.00 0.00 72 1016.2
20260902054533 28 360 6.4 19.3 0.00 0.00 0.00 72 1016.1
20260902054433 28 360 8.0 19.3 0.00 0.00 0.00 72 1016.0
20260902054354 28 360 8.0 19.3 0.00 0.00 0.00 72 1016.1
20260902054254 28 360 8.0 19.3 0.00 0.00 0.00 71 1016.1
20260902054133 28 360 6.4 19.3 0.00 0.00 0.00 71 1016.1
20260902054033 28 360 6.4 17.7 0.00 0.00 0.00 71 1016.1
20260902053933 28 360 6.4 17.7 0.00 0.00 0.00 71 1016.1
20260902053855 28 360 6.4 17.7 0.00 0.00 0.00 71 1016.1
20260902053738 28 360 6.4 17.7 0.00 0.00 0.00 71 1016.1
20260902053618 28 360 6.4 20.9 0.00 0.00 0.00 71 1016.1
20260902053517 28 360 6.4 20.9 0.00 0.00 0.00 71 1016.0
20260902053418 28 360 6.4 20.9 0.00 0.00 0.00 71 1016.0
20260902053318 28 360 6.4 20.9 0.00 0.00 0.00 71 1016.0
20260902053218 28 360 8.0 20.9 0.00 0.00 0.00 71 1016.0
20260902053140 28 360 9.7 20.9 0.00 0.00 0.00 71 1016.0
20260902053023 28 360 9.7 20.9 0.00 0.00 0.00 71 1016.1
20260902052944 28 360 9.7 20.9 0.00 0.00 0.00 71 1016.1
20260902052845 28 360 8.0 20.9 0.00 0.00 0.00 71 1016.0
20260902052723 28 360 8.0 16.1 0.00 0.00 0.00 71 1016.1
20260902052643 28 360 8.0 20.9 0.00 0.00 0.00 71 1016.1
20260902052523 28 360 8.0 20.9 0.00 0.00 0.00 71 1016.1
20260902052423 28 360 6.4 20.9 0.00 0.00 0.00 71 1016.0
20260902052324 28 360 4.8 20.9 0.00 0.00 0.00 71 1016.0
20260902052228 28 360 6.4 20.9 0.00 0.00 0.00 71 1016.1
20260902052128 28 360 8.0 20.9 0.00 0.00 0.00 71 1016.1
20260902052029 28 360 9.7 20.9 0.00 0.00 0.00 71 1016.0
20260902051930 28 360 9.7 20.9 0.00 0.00 0.00 71 1016.1
20260902051830 28 360 9.7 20.9 0.00 0.00 0.00 71 1016.1
20260902051731 28 360 9.7 25.7 0.00 0.00 0.00 70 1016.1
20260902051631 28 360 8.0 25.7 0.00 0.00 0.00 70 1016.1
20260902051556 28 360 8.0 25.7 0.00 0.00 0.00 70 1016.1
20260902051434 28 360 9.7 25.7 0.00 0.00 0.00 70 1016.1
20260902051334 28 360 8.0 25.7 0.00 0.00 0.00 70 1016.1
20260902051234 28 360 9.7 25.7 0.00 0.00 0.00 70 1016.1
20260902051135 28 360 11.3 25.7 0.00 0.00 0.00 70 1016.1
20260902051054 28 360 11.3 25.7 0.00 0.00 0.00 70 1016.1
20260902050934 28 360 11.3 25.7 0.00 0.00 0.00 70 1016.1
20260902050820 28 360 11.3 20.9 0.00 0.00 0.00 70 1016.1
20260902050720 28 360 9.7 20.9 0.00 0.00 0.00 70 1016.1
20260902050620 28 360 9.7 20.9 0.00 0.00 0.00 70 1016.1
20260902050521 28 360 8.0 22.5 0.00 0.00 0.00 70 1016.2
20260902050422 28 360 8.0 22.5 0.00 0.00 0.00 70 1016.1
20260902050322 28 360 9.7 22.5 0.00 0.00 0.00 70 1016.2
20260902050227 28 360 9.7 22.5 0.00 0.00 0.00 70 1016.2
20260902050127 28 360 11.3 22.5 0.00 0.00 0.00 70 1016.2
20260902050028 28 360 11.3 22.5 0.00 0.00 0.00 70 1016.2
20260902045922 28 360 12.9 22.5 0.00 0.00 0.00 70 1016.1
20260902045823 28 360 12.9 22.5 0.00 0.00 0.00 70 1016.2
20260902045723 28 360 11.3 22.5 0.00 0.00 0.00 70 1016.2
20260902045622 28 360 11.3 22.5 0.00 0.00 0.00 70 1016.1
20260902045543 28 360 9.7 20.9 0.00 0.00 0.00 70 1016.2
20260902045426 28 360 11.3 17.7 0.00 0.00 0.00 69 1016.2
20260902045327 28 360 11.3 17.7 0.00 0.00 0.00 69 1016.2
20260902045227 28 360 9.7 17.7 0.00 0.00 0.00 69 1016.1
20260902045148 28 360 9.7 17.7 0.00 0.00 0.00 69 1016.2
20260902045026 28 360 9.7 16.1 0.00 0.00 0.00 69 1016.2
20260902044945 28 360 11.3 16.1 0.00 0.00 0.00 69 1016.2
20260902044825 28 360 9.7 16.1 0.00 0.00 0.00 69 1016.2
20260902044726 28 360 9.7 16.1 0.00 0.00 0.00 69 1016.1
20260902044630 28 360 9.7 16.1 0.00 0.00 0.00 69 1016.2
20260902044530 28 360 8.0 19.3 0.00 0.00 0.00 69 1016.1
20260902044431 28 360 8.0 19.3 0.00 0.00 0.00 69 1016.1
20260902044351 28 182 8.0 19.3 0.00 0.00 0.00 69 1016.1
20260902044251 28 360 8.0 19.3 0.00 0.00 0.00 69 1016.1
20260902044130 29 360 9.7 19.3 0.00 0.00 0.00 69 1016.1
20260902044051 29 360 9.7 19.3 0.00 0.00 0.00 68 1016.1
20260902043950 29 360 11.3 19.3 0.00 0.00 0.00 68 1016.1
20260902043834 29 360 11.3 19.3 0.00 0.00 0.00 68 1016.1
20260902043735 29 360 11.3 19.3 0.00 0.00 0.00 68 1016.1
20260902043635 29 360 9.7 19.3 0.00 0.00 0.00 68 1016.0
20260902043536 29 360 9.7 19.3 0.00 0.00 0.00 68 1016.0
20260902043458 29 360 9.7 19.3 0.00 0.00 0.00 68 1016.1
20260902043357 29 360 8.0 19.3 0.00 0.00 0.00 68 1016.0
20260902043257 29 360 9.7 19.3 0.00 0.00 0.00 68 1016.0
20260902043135 29 360 9.7 19.3 0.00 0.00 0.00 68 1016.1
20260902043019 29 360 9.7 24.1 0.00 0.00 0.00 68 1016.0
20260902042939 29 360 9.7 24.1 0.00 0.00 0.00 68 1016.1
20260902042820 29 360 9.7 24.1 0.00 0.00 0.00 68 1016.1
20260902042719 29 360 11.3 24.1 0.00 0.00 0.00 67 1016.1
20260902042620 29 360 11.3 24.1 0.00 0.00 0.00 67 1016.1
20260902042520 29 360 11.3 24.1 0.00 0.00 0.00 67 1016.1
20260902042420 29 360 12.9 24.1 0.00 0.00 0.00 67 1016.1
20260902042319 29 360 14.5 24.1 0.00 0.00 0.00 67 1016.1
20260902042224 29 360 12.9 24.1 0.00 0.00 0.00 67 1016.0
20260902042125 29 360 12.9 19.3 0.00 0.00 0.00 67 1016.1
20260902042045 29 360 12.9 20.9 0.00 0.00 0.00 67 1016.1
20260902041924 29 360 12.9 20.9 0.00 0.00 0.00 67 1016.1
20260902041824 29 360 11.3 20.9 0.00 0.00 0.00 67 1016.1
20260902041725 29 360 11.3 20.9 0.00 0.00 0.00 67 1016.2
20260902041626 30 360 9.7 20.9 0.00 0.00 0.00 67 1016.1
20260902041529 30 360 9.7 20.9 0.00 0.00 0.00 67 1016.1
20260902041429 30 360 12.9 20.9 0.00 0.00 0.00 66 1016.1
20260902041330 30 360 14.5 20.9 0.00 0.00 0.00 66 1016.1
20260902041228 30 360 14.5 20.9 0.00 0.00 0.00 66 1016.1
20260902041128 30 360 12.9 20.9 0.00 0.00 0.00 66 1016.1
20260902041027 30 360 12.9 20.9 0.00 0.00 0.00 66 1016.1
20260902040928 30 360 12.9 20.9 0.00 0.00 0.00 66 1016.1
20260902040827 30 360 12.9 20.9 0.00 0.00 0.00 65 1016.2
20260902040732 30 360 12.9 20.9 0.00 0.00 0.00 65 1016.1
20260902040632 30 360 11.3 20.9 0.00 0.00 0.00 65 1016.2
20260902040533 30 360 11.3 19.3 0.00 0.00 0.00 65 1016.1
20260902040432 30 360 12.9 19.3 0.00 0.00 0.00 65 1016.1
20260902040332 30 360 14.5 19.3 0.00 0.00 0.00 65 1016.1
20260902040233 30 360 14.5 19.3 0.00 0.00 0.00 65 1016.1
20260902040117 30 360 12.9 19.3 0.00 0.00 0.00 65 1016.0
20260902040019 30 360 12.9 19.3 0.00 0.00 0.00 65 1016.0
20260902035919 30 360 11.3 19.3 0.00 0.00 0.00 65 1016.0
20260902035842 30 171 11.3 19.3 0.00 0.00 0.00 64 1016.0
20260902035740 30 360 11.3 19.3 0.00 0.00 0.00 64 1016.1
20260902035619 30 360 11.3 24.1 0.00 0.00 0.00 64 1016.1
20260902035521 30 360 12.9 24.1 0.00 0.00 0.00 64 1016.0
20260902035422 30 360 12.9 24.1 0.00 0.00 0.00 64 1016.0
20260902035326 30 360 11.3 24.1 0.00 0.00 0.00 64 1016.0
20260902035227 30 360 11.3 24.1 0.00 0.00 0.00 64 1016.1
20260902035127 30 360 11.3 24.1 0.00 0.00 0.00 64 1016.0
20260902035027 30 360 12.9 24.1 0.00 0.00 0.00 64 1016.0
20260902034928 30 360 14.5 24.1 0.00 0.00 0.00 64 1016.0
20260902034829 30 360 14.5 24.1 0.00 0.00 0.00 64 1016.0
20260902034749 30 360 12.9 24.1 0.00 0.00 0.00 64 1015.9
20260902034633 30 360 12.9 24.1 0.00 0.00 0.00 64 1015.9
20260902034533 30 360 14.5 24.1 0.00 0.00 0.00 64 1015.9
20260902034433 30 360 16.1 24.1 0.00 0.00 0.00 64 1015.9
20260902034335 30 360 14.5 24.1 0.00 0.00 0.00 64 1015.9
20260902034233 30 360 11.3 22.5 0.00 0.00 0.00 64 1015.8
20260902034134 30 360 11.3 17.7 0.00 0.00 0.00 64 1015.9
20260902034034 30 360 11.3 17.7 0.00 0.00 0.00 64 1015.8
20260902033919 30 360 9.7 17.7 0.00 0.00 0.00 63 1015.8
20260902033820 30 360 9.7 17.7 0.00 0.00 0.00 63 1015.8
20260902033720 30 360 11.3 17.7 0.00 0.00 0.00 63 1015.7
20260902033620 30 360 11.3 17.7 0.00 0.00 0.00 63 1015.8
20260902033521 30 360 11.3 17.7 0.00 0.00 0.00 63 1015.8
20260902033422 30 360 11.3 17.7 0.00 0.00 0.00 63 1015.7
20260902033327 30 360 11.3 17.7 0.00 0.00 0.00 63 1015.8
20260902033228 30 360 9.7 17.7 0.00 0.00 0.00 63 1015.7
20260902033148 30 360 8.0 16.1 0.00 0.00 0.00 63 1015.8
20260902033027 30 360 8.0 16.1 0.00 0.00 0.00 63 1015.7
20260902032927 30 360 8.0 16.1 0.00 0.00 0.00 63 1015.6
20260902032830 30 360 9.7 16.1 0.00 0.00 0.00 63 1015.8
20260902032730 30 360 9.7 16.1 0.00 0.00 0.00 63 1015.7
20260902032635 30 360 11.3 16.1 0.00 0.00 0.00 63 1015.6
20260902032555 30 360 11.3 16.1 0.00 0.00 0.00 62 1015.7
20260902032454 30 360 9.7 16.1 0.00 0.00 0.00 62 1015.7
20260902032316 30 360 8.0 14.5 0.00 0.00 0.00 62 1015.8
20260902032236 30 360 8.0 14.5 0.00 0.00 0.00 62 1015.7
20260902032157 30 360 9.7 14.5 0.00 0.00 0.00 62 1015.8
20260902032056 30 360 9.7 14.5 0.00 0.00 0.00 62 1015.8
20260902031935 30 360 9.7 14.5 0.00 0.00 0.00 62 1015.7
20260902031820 30 360 9.7 14.5 0.00 0.00 0.00 62 1015.8
20260902031720 30 360 8.0 14.5 0.00 0.00 0.00 62 1015.7
20260902031621 30 360 8.0 14.5 0.00 0.00 0.00 62 1015.7
20260902031520 30 360 8.0 12.9 0.00 0.00 0.00 62 1015.7
20260902031420 30 360 6.4 12.9 0.00 0.00 0.00 62 1015.7
20260902031321 30 360 6.4 12.9 0.00 0.00 0.00 62 1015.6
20260902031242 30 360 4.8 12.9 0.00 0.00 0.00 62 1015.6
20260902031121 30 360 4.8 9.7 0.00 0.00 0.00 62 1015.6
20260902031026 30 360 4.8 8.0 0.00 0.00 0.00 62 1015.5
20260902030927 30 360 6.4 8.0 0.00 0.00 0.00 61 1015.5
20260902030828 30 360 4.8 8.0 0.00 0.00 0.00 61 1015.5
20260902030729 30 360 4.8 8.0 0.00 0.00 0.00 61 1015.5
20260902030629 30 360 4.8 9.7 0.00 0.00 0.00 61 1015.5
20260902030529 30 360 4.8 9.7 0.00 0.00 0.00 61 1015.5
20260902030434 30 360 4.8 9.7 0.00 0.00 0.00 61 1015.5
20260902030355 30 360 4.8 9.7 0.00 0.00 0.00 61 1015.5
20260902030235 30 360 4.8 9.7 0.00 0.00 0.00 61 1015.4
20260902030155 30 360 4.8 9.7 0.00 0.00 0.00 61 1015.3
20260902030035 30 360 6.4 9.7 0.00 0.00 0.00 61 1015.4
20260902025936 30 360 6.4 9.7 0.00 0.00 0.00 61 1015.4
20260902025817 30 360 6.4 9.7 0.00 0.00 0.00 60 1015.4
20260902025721 30 360 6.4 9.7 0.00 0.00 0.00 60 1015.3
20260902025622 30 360 6.4 9.7 0.00 0.00 0.00 60 1015.3
20260902025523 31 360 8.0 9.7 0.00 0.00 0.00 60 1015.4
20260902025423 31 360 8.0 12.9 0.00 0.00 0.00 60 1015.3
20260902025323 31 360 8.0 12.9 0.00 0.00 0.00 60 1015.2
20260902025224 31 360 8.0 14.5 0.00 0.00 0.00 60 1015.3
20260902025125 31 360 6.4 14.5 0.00 0.00 0.00 60 1015.2
20260902025030 31 360 6.4 14.5 0.00 0.00 0.00 60 1015.2
20260902024930 31 360 6.4 14.5 0.00 0.00 0.00 60 1015.1
20260902024830 31 360 6.4 14.5 0.00 0.00 0.00 60 1015.2
20260902024732 31 360 8.0 14.5 0.00 0.00 0.00 60 1015.1
20260902024633 31 360 8.0 14.5 0.00 0.00 0.00 60 1015.0
20260902024533 31 360 8.0 14.5 0.00 0.00 0.00 59 1015.0
20260902024417 31 150 8.0 14.5 0.00 0.00 0.00 59 1015.1
20260902024318 31 360 8.0 14.5 0.00 0.00 0.00 59 1015.0
20260902024220 31 360 8.0 14.5 0.00 0.00 0.00 59 1015.0
20260902024140 31 360 8.0 14.5 0.00 0.00 0.00 59 1015.0
20260902024020 31 360 8.0 14.5 0.00 0.00 0.00 59 1015.0
20260902023919 31 360 8.0 14.5 0.00 0.00 0.00 59 1015.0
20260902023821 31 360 8.0 14.5 0.00 0.00 0.00 59 1014.9
20260902023725 31 360 8.0 14.5 0.00 0.00 0.00 59 1014.9
20260902023646 31 173 8.0 12.9 0.00 0.00 0.00 59 1014.8
20260902023525 31 360 8.0 12.9 0.00 0.00 0.00 59 1014.8
20260902023446 31 360 8.0 12.9 0.00 0.00 0.00 59 1014.7
20260902023326 31 360 8.0 12.9 0.00 0.00 0.00 58 1014.7
20260902023246 31 360 8.0 12.9 0.00 0.00 0.00 58 1014.7
20260902023126 31 360 6.4 12.9 0.00 0.00 0.00 58 1014.7
20260902023027 31 360 8.0 12.9 0.00 0.00 0.00 58 1014.7
20260902022932 31 360 8.0 12.9 0.00 0.00 0.00 58 1014.7
20260902022852 31 360 8.0 12.9 0.00 0.00 0.00 58 1014.6
20260902022730 31 360 8.0 14.5 0.00 0.00 0.00 58 1014.6
20260902022631 31 360 8.0 14.5 0.00 0.00 0.00 58 1014.6
20260902022532 31 360 6.4 14.5 0.00 0.00 0.00 58 1014.6
20260902022434 31 360 6.4 14.5 0.00 0.00 0.00 58 1014.6
20260902022318 31 360 6.4 16.1 0.00 0.00 0.00 58 1014.6
20260902022239 31 360 8.0 16.1 0.00 0.00 0.00 58 1014.6
20260902022119 31 360 9.7 16.1 0.00 0.00 0.00 58 1014.5
20260902022019 31 360 9.7 16.1 0.00 0.00 0.00 58 1014.6
20260902021920 31 360 8.0 16.1 0.00 0.00 0.00 58 1014.5
20260902021841 31 360 8.0 16.1 0.00 0.00 0.00 58 1014.5
20260902021721 31 360 9.7 16.1 0.00 0.00 0.00 58 1014.4
20260902021643 31 360 9.7 16.1 0.00 0.00 0.00 58 1014.4
20260902021526 31 360 8.0 17.7 0.00 0.00 0.00 57 1014.4
20260902021447 31 360 8.0 17.7 0.00 0.00 0.00 57 1014.4
20260902021325 31 360 8.0 17.7 0.00 0.00 0.00 57 1014.3
20260902021246 31 360 9.7 19.3 0.00 0.00 0.00 57 1014.3
20260902021125 31 360 9.7 19.3 0.00 0.00 0.00 57 1014.3
20260902021045 31 360 9.7 19.3 0.00 0.00 0.00 57 1014.3
20260902020944 31 360 9.7 20.9 0.00 0.00 0.00 57 1014.3
20260902020823 31 360 11.3 20.9 0.00 0.00 0.00 57 1014.3
20260902020725 31 360 11.3 20.9 0.00 0.00 0.00 57 1014.4
20260902020631 31 360 11.3 20.9 0.00 0.00 0.00 57 1014.3
20260902020532 32 360 12.9 20.9 0.00 0.00 0.00 57 1014.3
20260902020433 32 360 12.9 20.9 0.00 0.00 0.00 56 1014.4
20260902020333 32 360 14.5 20.9 0.00 0.00 0.00 56 1014.4
20260902020233 32 360 14.5 24.1 0.00 0.00 0.00 56 1014.3
20260902020134 32 360 12.9 24.1 0.00 0.00 0.00 56 1014.3
20260902020039 32 360 11.3 24.1 0.00 0.00 0.00 56 1014.3
20260902015918 32 360 11.3 24.1 0.00 0.00 0.00 56 1014.3
20260902015821 32 360 11.3 24.1 0.00 0.00 0.00 56 1014.3
20260902015720 32 360 12.9 24.1 0.00 0.00 0.00 56 1014.2
20260902015622 32 360 14.5 24.1 0.00 0.00 0.00 56 1014.2
20260902015542 32 360 14.5 24.1 0.00 0.00 0.00 56 1014.3
20260902015416 32 360 12.9 20.9 0.00 0.00 0.00 55 1014.2
20260902015341 32 360 12.9 20.9 0.00 0.00 0.00 55 1014.3
20260902015220 32 360 12.9 20.9 0.00 0.00 0.00 55 1014.3
20260902015120 32 157 14.5 20.9 0.00 0.00 0.00 55 1014.2
20260902015019 32 360 14.5 20.9 0.00 0.00 0.00 55 1014.2
20260902014920 32 360 14.5 22.5 0.00 0.00 0.00 55 1014.3
20260902014822 32 360 14.5 29.0 0.00 0.00 0.00 55 1014.2
20260902014742 32 360 12.9 30.6 0.00 0.00 0.00 55 1014.2
20260902014622 32 360 11.3 30.6 0.00 0.00 0.00 55 1014.2
20260902014526 32 360 11.3 30.6 0.00 0.00 0.00 55 1014.2
20260902014447 32 360 11.3 30.6 0.00 0.00 0.00 55 1014.2
20260902014326 32 360 12.9 30.6 0.00 0.00 0.00 55 1014.2
20260902014226 32 360 16.1 30.6 0.00 0.00 0.00 54 1014.2
20260902014127 32 360 20.9 32.2 0.00 0.00 0.00 54 1014.1
20260902014027 32 360 20.9 32.2 0.00 0.00 0.00 54 1014.2
20260902013928 32 360 20.9 32.2 0.00 0.00 0.00 54 1014.2
20260902013833 32 360 19.3 32.2 0.00 0.00 0.00 54 1014.2
20260902013733 32 360 19.3 32.2 0.00 0.00 0.00 54 1014.2
20260902013634 32 143 19.3 32.2 0.00 0.00 0.00 54 1014.2
20260902013555 32 360 20.9 32.2 0.00 0.00 0.00 54 1014.2
20260902013434 32 360 17.7 32.2 0.00 0.00 0.00 54 1014.2
20260902013335 32 360 17.7 32.2 0.00 0.00 0.00 54 1014.1
20260902013220 32 360 14.5 20.9 0.00 0.00 0.00 54 1014.1
20260902013120 32 360 12.9 20.9 0.00 0.00 0.00 54 1014.1
20260902013020 32 360 12.9 20.9 0.00 0.00 0.00 54 1014.1
20260902012940 32 360 11.3 19.3 0.00 0.00 0.00 54 1014.1
20260902012822 32 360 11.3 19.3 0.00 0.00 0.00 54 1014.0
20260902012742 32 360 11.3 20.9 0.00 0.00 0.00 53 1014.0
20260902012616 32 360 11.3 20.9 0.00 0.00 0.00 53 1014.0
20260902012520 32 360 9.7 20.9 0.00 0.00 0.00 53 1014.0
20260902012420 32 360 9.7 20.9 0.00 0.00 0.00 53 1014.0
20260902012341 32 360 11.3 20.9 0.00 0.00 0.00 53 1014.0
20260902012221 32 360 12.9 20.9 0.00 0.00 0.00 53 1014.0
20260902012121 32 360 14.5 20.9 0.00 0.00 0.00 53 1013.9
20260902012023 32 360 14.5 20.9 0.00 0.00 0.00 53 1013.9
20260902011923 32 360 16.1 20.9 0.00 0.00 0.00 52 1013.9
20260902011844 32 360 12.9 20.9 0.00 0.00 0.00 52 1013.9
20260902011727 32 360 9.7 20.9 0.00 0.00 0.00 52 1013.9
20260902011627 32 360 6.4 12.9 0.00 0.00 0.00 52 1013.8
20260902011528 33 360 4.8 8.0 0.00 0.00 0.00 52 1013.8
20260902011428 33 360 4.8 8.0 0.00 0.00 0.00 52 1013.8
20260902011350 33 360 4.8 8.0 0.00 0.00 0.00 52 1013.8
20260902011230 33 360 4.8 8.0 0.00 0.00 0.00 52 1013.8
20260902011131 33 360 4.8 8.0 0.00 0.00 0.00 51 1013.8
20260902011056 33 360 4.8 12.9 0.00 0.00 0.00 51 1013.8
20260902010936 33 360 3.2 12.9 0.00 0.00 0.00 51 1013.8
20260902010856 33 360 4.8 12.9 0.00 0.00 0.00 51 1013.8
20260902010736 33 360 4.8 12.9 0.00 0.00 0.00 51 1013.7
20260902010656 33 360 3.2 14.5 0.00 0.00 0.00 51 1013.8
20260902010556 33 360 3.2 14.5 0.00 0.00 0.00 51 1013.8
20260902010435 33 360 4.8 14.5 0.00 0.00 0.00 51 1013.7
20260902010336 33 360 4.8 14.5 0.00 0.00 0.00 51 1013.7
20260902010240 33 360 6.4 14.5 0.00 0.00 0.00 51 1013.7
20260902010120 33 360 8.0 17.7 0.00 0.00 0.00 51 1013.7
20260902010041 33 360 8.0 17.7 0.00 0.00 0.00 51 1013.5
20260902005920 33 360 9.7 17.7 0.00 0.00 0.00 51 1013.5
20260902005822 33 360 11.3 17.7 0.00 0.00 0.00 51 1013.7
20260902005720 33 360 11.3 17.7 0.00 0.00 0.00 51 1013.5
20260902005621 33 360 9.7 17.7 0.00 0.00 0.00 51 1013.5
20260902005525 33 360 11.3 17.7 0.00 0.00 0.00 51 1013.6
20260902005426 33 360 9.7 17.7 0.00 0.00 0.00 51 1013.6
20260902005325 33 360 8.0 17.7 0.00 0.00 0.00 51 1013.7
20260902005246 33 360 8.0 14.5 0.00 0.00 0.00 51 1013.7
20260902005125 33 360 6.4 14.5 0.00 0.00 0.00 51 1013.5
20260902005026 33 360 8.0 14.5 0.00 0.00 0.00 51 1013.5
20260902004926 33 360 6.4 14.5 0.00 0.00 0.00 51 1013.7
20260902004830 33 360 8.0 14.5 0.00 0.00 0.00 51 1013.7
20260902004731 33 360 8.0 12.9 0.00 0.00 0.00 51 1013.7
20260902004632 33 360 8.0 12.9 0.00 0.00 0.00 50 1013.8
20260902004531 33 360 8.0 12.9 0.00 0.00 0.00 51 1013.7
20260902004432 33 360 6.4 12.9 0.00 0.00 0.00 50 1013.8
20260902004353 33 360 6.4 12.9 0.00 0.00 0.00 50 1013.8
20260902004231 33 360 6.4 12.9 0.00 0.00 0.00 50 1013.8
20260902004116 33 360 6.4 12.9 0.00 0.00 0.00 50 1013.8
20260902004016 33 360 6.4 12.9 0.00 0.00 0.00 50 1013.8
20260902003937 33 360 6.4 12.9 0.00 0.00 0.00 50 1013.8
20260902003817 33 360 6.4 12.9 0.00 0.00 0.00 50 1013.8
20260902003718 33 360 6.4 12.9 0.00 0.00 0.00 50 1013.9
20260902003618 33 360 6.4 12.9 0.00 0.00 0.00 50 1013.9
20260902003519 33 360 6.4 12.9 0.00 0.00 0.00 50 1013.9
20260902003424 33 360 8.0 12.9 0.00 0.00 0.00 50 1014.0
20260902003325 33 360 6.4 12.9 0.00 0.00 0.00 50 1013.9
20260902003225 33 360 6.4 12.9 0.00 0.00 0.00 50 1014.0
20260902003126 33 360 4.8 12.9 0.00 0.00 0.00 50 1014.0
20260902003025 33 360 4.8 9.7 0.00 0.00 0.00 50 1014.0
20260902002926 33 360 6.4 14.5 0.00 0.00 0.00 50 1014.0
20260902002828 34 360 6.4 14.5 0.00 0.00 0.00 50 1014.0
20260902002732 34 360 4.8 14.5 0.00 0.00 0.00 49 1014.0
20260902002632 34 360 6.4 14.5 0.00 0.00 0.00 49 1014.0
20260902002534 34 360 6.4 14.5 0.00 0.00 0.00 49 1014.0
20260902002433 34 360 6.4 14.5 0.00 0.00 0.00 49 1014.0
20260902002335 34 360 8.0 14.5 0.00 0.00 0.00 49 1014.0
20260902002236 34 360 8.0 16.1 0.00 0.00 0.00 49 1014.0
20260902002120 34 360 9.7 16.1 0.00 0.00 0.00 49 1014.0
20260902002021 34 360 8.0 16.1 0.00 0.00 0.00 49 1014.0
20260902001922 34 360 6.4 16.1 0.00 0.00 0.00 49 1014.0
20260902001823 34 161 6.4 16.1 0.00 0.00 0.00 49 1014.0
20260902001723 34 360 6.4 16.1 0.00 0.00 0.00 49 1014.0
20260902001623 34 360 6.4 20.9 0.00 0.00 0.00 49 1014.0
20260902001522 34 360 8.0 20.9 0.00 0.00 0.00 49 1014.0
20260902001428 34 360 8.0 20.9 0.00 0.00 0.00 48 1013.9
20260902001329 34 360 8.0 20.9 0.00 0.00 0.00 48 1013.9
20260902001229 34 360 8.0 20.9 0.00 0.00 0.00 48 1013.9
20260902001131 34 360 6.4 22.5 0.00 0.00 0.00 48 1013.9
20260902001030 34 360 6.4 22.5 0.00 0.00 0.00 48 1014.0
20260902000951 34 360 6.4 24.1 0.00 0.00 0.00 48 1013.9
20260902000829 34 360 6.4 25.7 0.00 0.00 0.00 48 1013.9
20260902000733 34 360 8.0 25.7 0.00 0.00 0.00 48 1014.0
20260902000654 34 360 11.3 25.7 0.00 0.00 0.00 48 1013.9
20260902000553 34 360 12.9 25.7 0.00 0.00 0.00 48 1013.9
20260902000433 34 360 14.5 25.7 0.00 0.00 0.00 48 1013.9
20260902000334 34 360 12.9 25.7 0.00 0.00 0.00 48 1013.9
20260902000234 34 103 14.5 25.7 0.00 0.00 0.00 48 1013.9
20260902000134 34 360 14.5 25.7 0.00 0.00 0.00 48 1013.9
20260902000019 35 360 12.9 25.7 0.00 0.00 0.00 48 1013.9
20260901235917 35 360 12.9 22.5 0.00 0.00 0.00 48 1013.9
20260901235819 35 360 11.3 22.5 0.00 0.00 0.00 48 1013.9
20260901235718 35 173 9.7 24.1 0.00 0.00 0.00 47 1013.9
20260901235619 35 360 9.7 24.1 0.00 0.00 0.00 48 1013.9
20260901235521 35 360 8.0 25.7 0.00 0.00 0.00 48 1013.9
20260901235422 35 360 8.0 25.7 0.00 0.00 0.00 48 1013.9
20260901235327 35 360 8.0 25.7 0.00 0.00 0.00 47 1013.9
20260901235227 35 360 11.3 25.7 0.00 0.00 0.00 47 1013.9
20260901235128 35 105 11.3 25.7 0.00 0.00 0.00 47 1013.8
20260901235048 35 360 14.5 25.7 0.00 0.00 0.00 47 1013.9
20260901234928 35 360 14.5 25.7 0.00 0.00 0.00 47 1013.8
20260901234828 35 360 12.9 25.7 0.00 0.00 0.00 47 1014.0
20260901234728 35 360 11.3 25.7 0.00 0.00 0.00 47 1013.8
20260901234629 35 360 8.0 24.1 0.00 0.00 0.00 47 1013.8
20260901234535 35 360 9.7 24.1 0.00 0.00 0.00 46 1013.8
20260901234436 35 360 9.7 24.1 0.00 0.00 0.00 46 1013.8
20260901234317 35 106 12.9 24.1 0.00 0.00 0.00 46 1013.9
20260901234217 35 360 14.5 24.1 0.00 0.00 0.00 46 1013.9
20260901234118 35 360 12.9 24.1 0.00 0.00 0.00 46 1013.9
20260901234019 35 360 12.9 24.1 0.00 0.00 0.00 45 1013.8
20260901233923 35 360 11.3 20.9 0.00 0.00 0.00 45 1013.8
20260901233824 35 360 11.3 20.9 0.00 0.00 0.00 45 1013.8
20260901233725 35 360 9.7 20.9 0.00 0.00 0.00 45 1013.8
20260901233626 35 360 8.0 17.7 0.00 0.00 0.00 45 1013.8
20260901233527 35 360 8.0 17.7 0.00 0.00 0.00 45 1013.8
20260901233427 35 360 6.4 17.7 0.00 0.00 0.00 46 1013.8
20260901233331 35 360 6.4 17.7 0.00 0.00 0.00 46 1013.7
20260901233252 35 360 8.0 17.7 0.00 0.00 0.00 46 1013.8
20260901233132 35 360 8.0 17.7 0.00 0.00 0.00 45 1013.7
20260901233032 35 82 9.7 17.7 0.00 0.00 0.00 45 1013.8
20260901232933 35 49 9.7 17.7 0.00 0.00 0.00 45 1013.7
20260901232835 36 360 9.7 17.7 0.00 0.00 0.00 45 1013.7
20260901232735 36 360 8.0 17.7 0.00 0.00 0.00 45 1013.7
20260901232619 36 360 4.8 12.9 0.00 0.00 0.00 45 1013.8
20260901232520 36 360 4.8 12.9 0.00 0.00 0.00 45 1013.7
20260901232419 36 360 4.8 27.4 0.00 0.00 0.00 45 1013.8
20260901232321 36 360 4.8 27.4 0.00 0.00 0.00 45 1013.8
20260901232221 36 360 4.8 27.4 0.00 0.00 0.00 45 1013.7
20260901232122 36 360 4.8 27.4 0.00 0.00 0.00 46 1013.7
20260901232026 36 140 4.8 27.4 0.00 0.00 0.00 45 1013.7
20260901231927 36 360 6.4 27.4 0.00 0.00 0.00 45 1013.8
20260901231828 36 360 9.7 27.4 0.00 0.00 0.00 45 1013.8
20260901231747 36 360 12.9 27.4 0.00 0.00 0.00 45 1013.7
20260901231647 36 149 16.1 27.4 0.00 0.00 0.00 45 1013.8
20260901231526 36 141 16.1 25.7 0.00 0.00 0.00 45 1013.7
20260901231446 36 360 16.1 25.7 0.00 0.00 0.00 45 1013.7
20260901231345 36 360 14.5 25.7 0.00 0.00 0.00 44 1013.7
20260901231225 36 360 14.5 25.7 0.00 0.00 0.00 44 1013.7
20260901231129 36 360 11.3 25.7 0.00 0.00 0.00 45 1013.7
20260901231050 36 360 11.3 22.5 0.00 0.00 0.00 45 1013.7
20260901230930 36 123 11.3 20.9 0.00 0.00 0.00 45 1013.7
20260901230831 36 360 14.5 20.9 0.00 0.00 0.00 44 1013.6
20260901230732 36 360 14.5 20.9 0.00 0.00 0.00 44 1013.7
20260901230633 36 360 11.3 20.9 0.00 0.00 0.00 44 1013.7
20260901230518 36 360 9.7 20.9 0.00 0.00 0.00 44 1013.7
20260901230419 36 360 8.0 17.7 0.00 0.00 0.00 44 1013.7
20260901230339 36 360 8.0 17.7 0.00 0.00 0.00 44 1013.8
20260901230219 36 360 8.0 17.7 0.00 0.00 0.00 44 1013.6
20260901230120 36 360 4.8 17.7 0.00 0.00 0.00 45 1013.7
20260901230021 36 360 6.4 17.7 0.00 0.00 0.00 44 1013.7
20260901225941 36 89 8.0 17.7 0.00 0.00 0.00 44 1013.8
20260901225842 36 360 9.7 17.7 0.00 0.00 0.00 44 1013.8
20260901225725 36 360 8.0 19.3 0.00 0.00 0.00 44 1013.7
20260901225646 36 360 8.0 19.3 0.00 0.00 0.00 44 1013.7
20260901225545 36 360 6.4 19.3 0.00 0.00 0.00 43 1013.7
20260901225444 36 360 4.8 19.3 0.00 0.00 0.00 43 1013.7
20260901225323 36 360 6.4 20.9 0.00 0.00 0.00 43 1013.7
20260901225224 36 360 8.0 20.9 0.00 0.00 0.00 43 1013.7
20260901225125 36 360 11.3 20.9 0.00 0.00 0.00 43 1013.7
20260901225025 36 360 12.9 20.9 0.00 0.00 0.00 43 1013.7
20260901224930 36 360 11.3 20.9 0.00 0.00 0.00 43 1013.7
20260901224831 36 360 11.3 20.9 0.00 0.00 0.00 43 1013.5
20260901224731 36 149 11.3 20.9 0.00 0.00 0.00 43 1013.6
20260901224632 36 360 9.7 20.9 0.00 0.00 0.00 43 1013.6
20260901224533 36 360 9.7 20.9 0.00 0.00 0.00 42 1013.5
20260901224433 36 360 8.0 17.7 0.00 0.00 0.00 42 1013.5
20260901224317 36 360 11.3 17.7 0.00 0.00 0.00 42 1013.6
20260901224218 36 360 9.7 17.7 0.00 0.00 0.00 42 1013.6
20260901224119 36 360 8.0 16.1 0.00 0.00 0.00 42 1013.6
20260901224018 36 360 6.4 16.1 0.00 0.00 0.00 42 1013.7
20260901223919 36 360 4.8 14.5 0.00 0.00 0.00 42 1013.5
20260901223819 36 360 4.8 14.5 0.00 0.00 0.00 42 1013.6
20260901223720 36 360 6.4 14.5 0.00 0.00 0.00 42 1013.6
20260901223644 36 360 6.4 14.5 0.00 0.00 0.00 43 1013.6
20260901223523 36 360 6.4 14.5 0.00 0.00 0.00 42 1013.7
20260901223424 36 360 6.4 14.5 0.00 0.00 0.00 43 1013.7
20260901223324 36 360 8.0 14.5 0.00 0.00 0.00 43 1013.7
20260901223225 36 360 8.0 14.5 0.00 0.00 0.00 43 1013.7
20260901223124 36 360 8.0 14.5 0.00 0.00 0.00 43 1013.7
20260901223025 36 360 8.0 16.1 0.00 0.00 0.00 43 1013.7
20260901222931 36 360 8.0 16.1 0.00 0.00 0.00 43 1013.7
20260901222833 36 360 6.4 16.1 0.00 0.00 0.00 44 1013.7
20260901222732 36 360 6.4 16.1 0.00 0.00 0.00 43 1013.6
20260901222633 36 360 8.0 16.1 0.00 0.00 0.00 43 1013.7
20260901222534 36 360 8.0 16.1 0.00 0.00 0.00 43 1013.7
20260901222434 36 360 8.0 16.1 0.00 0.00 0.00 42 1013.8
20260901222319 36 360 8.0 16.1 0.00 0.00 0.00 44 1013.8
20260901222218 36 360 6.4 16.1 0.00 0.00 0.00 44 1013.8
20260901222119 36 360 6.4 16.1 0.00 0.00 0.00 44 1013.7
20260901222020 35 360 8.0 16.1 0.00 0.00 0.00 42 1013.8
20260901221920 35 360 9.7 16.1 0.00 0.00 0.00 42 1013.8
20260901221821 35 360 9.7 16.1 0.00 0.00 0.00 43 1013.8
20260901221721 35 360 9.7 16.1 0.00 0.00 0.00 44 1013.8
20260901221625 35 360 9.7 17.7 0.00 0.00 0.00 44 1013.9
20260901221526 35 360 9.7 20.9 0.00 0.00 0.00 43 1013.9
20260901221426 35 360 11.3 20.9 0.00 0.00 0.00 43 1013.7
20260901221348 36 360 9.7 20.9 0.00 0.00 0.00 45 1013.9
20260901221227 36 360 9.7 20.9 0.00 0.00 0.00 45 1013.9
20260901221127 36 360 8.0 20.9 0.00 0.00 0.00 45 1013.8
20260901221028 36 360 9.7 20.9 0.00 0.00 0.00 45 1013.8
20260901220933 36 360 9.7 20.9 0.00 0.00 0.00 44 1013.9
20260901220833 36 360 9.7 20.9 0.00 0.00 0.00 44 1013.9
20260901220753 36 360 11.3 20.9 0.00 0.00 0.00 45 1013.8
20260901220633 36 360 12.9 20.9 0.00 0.00 0.00 44 1013.8
20260901220534 36 360 11.3 20.9 0.00 0.00 0.00 44 1013.8
20260901220433 36 360 9.7 19.3 0.00 0.00 0.00 45 1013.7
20260901220334 36 360 8.0 14.5 0.00 0.00 0.00 45 1013.9
20260901220217 36 360 8.0 14.5 0.00 0.00 0.00 44 1013.8
20260901220118 36 360 6.4 17.7 0.00 0.00 0.00 44 1013.9
20260901220039 36 360 4.8 17.7 0.00 0.00 0.00 43 1013.8
20260901215918 36 360 4.8 17.7 0.00 0.00 0.00 43 1013.9
20260901215819 36 360 4.8 17.7 0.00 0.00 0.00 43 1013.8
20260901215719 36 360 4.8 17.7 0.00 0.00 0.00 43 1013.8
20260901215620 36 360 6.4 17.7 0.00 0.00 0.00 42 1013.8
20260901215525 36 360 9.7 17.7 0.00 0.00 0.00 42 1013.9
20260901215445 36 155 11.3 17.7 0.00 0.00 0.00 42 1013.9
20260901215325 36 360 9.7 17.7 0.00 0.00 0.00 42 1013.9
20260901215224 36 360 8.0 16.1 0.00 0.00 0.00 42 1013.8
20260901215123 36 360 4.8 9.7 0.00 0.00 0.00 42 1013.8
20260901215024 36 360 4.8 9.7 0.00 0.00 0.00 41 1013.8
20260901214924 36 173 3.2 9.7 0.00 0.00 0.00 43 1013.8
20260901214825 36 360 1.6 9.7 0.00 0.00 0.00 43 1013.8
20260901214729 36 360 1.6 9.7 0.00 0.00 0.00 43 1013.8
20260901214629 36 37 1.6 12.9 0.00 0.00 0.00 43 1013.9
20260901214529 36 360 3.2 12.9 0.00 0.00 0.00 43 1013.9
20260901214430 36 360 4.8 16.1 0.00 0.00 0.00 43 1013.9
20260901214330 36 360 6.4 16.1 0.00 0.00 0.00 43 1013.8
20260901214251 36 22 6.4 16.1 0.00 0.00 0.00 43 1013.8
20260901214131 36 80 8.0 24.1 0.00 0.00 0.00 43 1013.9
20260901214034 36 97 8.0 24.1 0.00 0.00 0.00 43 1013.8
20260901213916 36 102 9.7 24.1 0.00 0.00 0.00 43 1013.9
20260901213816 36 360 9.7 24.1 0.00 0.00 0.00 43 1013.9
20260901213716 36 360 9.7 24.1 0.00 0.00 0.00 42 1013.8
20260901213617 36 360 11.3 24.1 0.00 0.00 0.00 43 1013.9
20260901213517 36 360 12.9 24.1 0.00 0.00 0.00 42 1013.9
20260901213422 36 360 14.5 24.1 0.00 0.00 0.00 42 1013.9
20260901213322 36 360 12.9 24.1 0.00 0.00 0.00 43 1013.9
20260901213222 36 360 11.3 22.5 0.00 0.00 0.00 44 1013.9
20260901213122 36 360 9.7 19.3 0.00 0.00 0.00 43 1013.9
20260901213023 36 123 12.9 19.3 0.00 0.00 0.00 43 1013.9
20260901212922 36 360 12.9 19.3 0.00 0.00 0.00 43 1013.9
20260901212823 36 360 11.3 19.3 0.00 0.00 0.00 42 1014.0
20260901212723 36 360 8.0 19.3 0.00 0.00 0.00 43 1013.9
20260901212627 36 360 6.4 14.5 0.00 0.00 0.00 43 1013.9
20260901212548 36 360 6.4 14.5 0.00 0.00 0.00 43 1013.9
20260901212427 36 360 8.0 14.5 0.00 0.00 0.00 43 1013.9
20260901212327 36 360 8.0 14.5 0.00 0.00 0.00 43 1014.0
20260901212227 36 360 8.0 14.5 0.00 0.00 0.00 42 1013.9
20260901212148 36 360 6.4 14.5 0.00 0.00 0.00 42 1013.9
20260901212027 36 360 4.8 14.5 0.00 0.00 0.00 41 1013.9
20260901211947 37 360 6.4 14.5 0.00 0.00 0.00 42 1013.9
20260901211851 37 100 4.8 14.5 0.00 0.00 0.00 41 1014.0
20260901211730 37 360 4.8 14.5 0.00 0.00 0.00 41 1014.0
20260901211631 37 360 3.2 14.5 0.00 0.00 0.00 41 1014.0
20260901211532 37 202 3.2 8.0 0.00 0.00 0.00 41 1014.0
20260901211432 37 360 3.2 8.0 0.00 0.00 0.00 41 1014.1
20260901211332 37 360 3.2 8.0 0.00 0.00 0.00 41 1014.1
20260901211216 37 360 3.2 6.4 0.00 0.00 0.00 42 1014.1
20260901211117 36 360 3.2 8.0 0.00 0.00 0.00 43 1014.0
20260901211017 36 135 1.6 8.0 0.00 0.00 0.00 43 1014.0
20260901210917 36 360 1.6 12.9 0.00 0.00 0.00 42 1014.1
20260901210817 36 360 3.2 12.9 0.00 0.00 0.00 43 1014.1
20260901210719 36 92 4.8 12.9 0.00 0.00 0.00 43 1014.1
20260901210619 36 360 4.8 12.9 0.00 0.00 0.00 43 1014.1
20260901210524 36 360 4.8 12.9 0.00 0.00 0.00 43 1014.3
20260901210425 36 360 4.8 12.9 0.00 0.00 0.00 43 1014.3
20260901210345 36 360 4.8 12.9 0.00 0.00 0.00 43 1014.2
20260901210224 36 360 6.4 12.9 0.00 0.00 0.00 42 1014.4
20260901210125 36 360 8.0 12.9 0.00 0.00 0.00 42 1014.3
20260901210025 36 360 8.0 14.5 0.00 0.00 0.00 43 1014.3
20260901205926 36 360 6.4 17.7 0.00 0.00 0.00 43 1014.3
20260901205850 36 360 4.8 17.7 0.00 0.00 0.00 43 1014.4
20260901205729 35 360 3.2 17.7 0.00 0.00 0.00 44 1014.4
20260901205649 35 360 3.2 17.7 0.00 0.00 0.00 43 1014.4
20260901205549 35 360 4.8 17.7 0.00 0.00 0.00 43 1014.4
20260901205448 35 360 6.4 17.7 0.00 0.00 0.00 43 1014.5
20260901205327 36 360 9.7 17.7 0.00 0.00 0.00 43 1014.5
20260901205227 36 360 11.3 17.7 0.00 0.00 0.00 43 1014.6
20260901205128 36 360 11.3 16.1 0.00 0.00 0.00 42 1014.6
20260901205034 36 360 12.9 16.1 0.00 0.00 0.00 42 1014.6
20260901204934 36 360 9.7 16.1 0.00 0.00 0.00 43 1014.6
20260901204835 36 360 9.7 16.1 0.00 0.00 0.00 42 1014.5
20260901204735 37 360 8.0 16.1 0.00 0.00 0.00 41 1014.6
20260901204635 37 360 8.0 16.1 0.00 0.00 0.00 41 1014.6
20260901204555 37 360 4.8 16.1 0.00 0.00 0.00 41 1014.6
20260901204435 37 360 3.2 12.9 0.00 0.00 0.00 42 1014.7
20260901204320 36 360 4.8 12.9 0.00 0.00 0.00 43 1014.7
20260901204240 36 360 6.4 12.9 0.00 0.00 0.00 43 1014.7
20260901204120 36 360 6.4 12.9 0.00 0.00 0.00 42 1014.7
20260901204020 36 360 6.4 12.9 0.00 0.00 0.00 42 1014.7
20260901203920 36 360 6.4 12.9 0.00 0.00 0.00 43 1014.8
20260901203840 36 360 8.0 12.9 0.00 0.00 0.00 42 1014.8
20260901203741 36 360 6.4 12.9 0.00 0.00 0.00 42 1014.8
20260901203619 36 360 4.8 12.9 0.00 0.00 0.00 44 1014.8
20260901203521 36 360 4.8 16.1 0.00 0.00 0.00 44 1014.8
20260901203425 36 360 4.8 16.1 0.00 0.00 0.00 44 1014.8
20260901203325 36 360 4.8 16.1 0.00 0.00 0.00 44 1014.8
20260901203227 36 360 4.8 16.1 0.00 0.00 0.00 44 1014.7
20260901203128 36 360 3.2 16.1 0.00 0.00 0.00 43 1014.8
20260901203029 36 360 4.8 16.1 0.00 0.00 0.00 43 1014.8
20260901202929 36 360 4.8 16.1 0.00 0.00 0.00 43 1014.8
20260901202835 36 360 8.0 16.1 0.00 0.00 0.00 43 1014.8
20260901202756 37 360 8.0 16.1 0.00 0.00 0.00 42 1014.9
20260901202654 37 360 6.4 16.1 0.00 0.00 0.00 41 1014.9
20260901202534 37 360 3.2 12.9 0.00 0.00 0.00 42 1014.9
20260901202434 37 360 3.2 9.7 0.00 0.00 0.00 41 1014.9
20260901202335 37 360 3.2 9.7 0.00 0.00 0.00 41 1015.0
20260901202236 37 360 6.4 9.7 0.00 0.00 0.00 40 1015.0
20260901202120 37 360 6.4 9.7 0.00 0.00 0.00 41 1015.0
20260901202020 37 360 4.8 12.9 0.00 0.00 0.00 41 1015.0
20260901201920 37 360 4.8 12.9 0.00 0.00 0.00 42 1015.0
20260901201821 37 360 3.2 12.9 0.00 0.00 0.00 43 1015.1
20260901201721 37 360 3.2 14.5 0.00 0.00 0.00 43 1015.1
20260901201622 36 360 3.2 14.5 0.00 0.00 0.00 43 1015.2
20260901201522 36 360 1.6 14.5 0.00 0.00 0.00 44 1015.1
20260901201447 36 157 3.2 14.5 0.00 0.00 0.00 45 1015.2
20260901201327 36 360 3.2 14.5 0.00 0.00 0.00 45 1015.1
20260901201247 36 360 6.4 17.7 0.00 0.00 0.00 45 1015.2
20260901201127 36 360 6.4 17.7 0.00 0.00 0.00 45 1015.2
20260901201026 36 360 8.0 17.7 0.00 0.00 0.00 45 1015.2
20260901200926 36 167 6.4 17.7 0.00 0.00 0.00 46 1015.2
20260901200827 36 360 6.4 17.7 0.00 0.00 0.00 45 1015.2
20260901200727 36 360 6.4 17.7 0.00 0.00 0.00 46 1015.3
20260901200632 36 360 9.7 17.7 0.00 0.00 0.00 46 1015.2
20260901200553 36 360 9.7 17.7 0.00 0.00 0.00 45 1015.2
20260901200431 36 360 9.7 16.1 0.00 0.00 0.00 45 1015.3
20260901200332 36 360 8.0 16.1 0.00 0.00 0.00 44 1015.3
20260901200253 36 360 6.4 14.5 0.00 0.00 0.00 43 1015.3
20260901200132 36 360 4.8 9.7 0.00 0.00 0.00 42 1015.3
20260901200033 36 360 3.2 12.9 0.00 0.00 0.00 42 1015.3
20260901195916 37 360 0.0 12.9 0.00 0.00 0.00 42 1015.3
20260901195838 36 360 1.6 12.9 0.00 0.00 0.00 43 1015.3
20260901195717 36 360 1.6 12.9 0.00 0.00 0.00 43 1015.3
20260901195617 36 360 3.2 12.9 0.00 0.00 0.00 43 1015.3
20260901195539 36 360 4.8 12.9 0.00 0.00 0.00 43 1015.4
20260901195439 36 360 6.4 12.9 0.00 0.00 0.00 43 1015.5
20260901195318 36 360 6.4 12.9 0.00 0.00 0.00 43 1015.5
20260901195219 37 360 4.8 12.9 0.00 0.00 0.00 42 1015.4
20260901195123 37 360 3.2 9.7 0.00 0.00 0.00 44 1015.4
20260901195023 37 207 1.6 12.9 0.00 0.00 0.00 44 1015.4
20260901194924 37 360 3.2 12.9 0.00 0.00 0.00 43 1015.5
20260901194824 37 360 3.2 12.9 0.00 0.00 0.00 43 1015.5
20260901194726 37 360 1.6 12.9 0.00 0.00 0.00 43 1015.5
20260901194626 37 360 3.2 12.9 0.00 0.00 0.00 43 1015.6
20260901194530 37 256 1.6 12.9 0.00 0.00 0.00 43 1015.6
20260901194430 36 360 4.8 12.9 0.00 0.00 0.00 44 1015.5
20260901194331 36 360 4.8 12.9 0.00 0.00 0.00 44 1015.5
20260901194231 36 360 4.8 12.9 0.00 0.00 0.00 45 1015.5
20260901194132 36 360 4.8 9.7 0.00 0.00 0.00 45 1015.6
20260901194053 36 360 4.8 9.7 0.00 0.00 0.00 45 1015.6
20260901193930 36 360 4.8 9.7 0.00 0.00 0.00 44 1015.6
20260901193831 36 360 4.8 11.3 0.00 0.00 0.00 44 1015.6
20260901193735 36 360 3.2 6.4 0.00 0.00 0.00 46 1015.6
20260901193616 36 360 1.6 14.5 0.00 0.00 0.00 45 1015.6
20260901193516 36 143 1.6 14.5 0.00 0.00 0.00 45 1015.7
20260901193416 35 360 1.6 14.5 0.00 0.00 0.00 46 1015.6
20260901193317 35 360 1.6 14.5 0.00 0.00 0.00 46 1015.6
20260901193218 35 360 3.2 14.5 0.00 0.00 0.00 47 1015.7
20260901193143 35 360 3.2 14.5 0.00 0.00 0.00 47 1015.6
20260901193022 35 360 4.8 14.5 0.00 0.00 0.00 47 1015.6
20260901192923 35 360 8.0 14.5 0.00 0.00 0.00 46 1015.6
20260901192826 35 86 9.7 14.5 0.00 0.00 0.00 46 1015.7
20260901192725 35 360 8.0 14.5 0.00 0.00 0.00 47 1015.6
20260901192626 35 360 4.8 14.5 0.00 0.00 0.00 47 1015.8
20260901192527 35 360 3.2 9.7 0.00 0.00 0.00 47 1015.8
20260901192432 35 129 3.2 12.9 0.00 0.00 0.00 47 1015.8
20260901192333 35 360 3.2 12.9 0.00 0.00 0.00 48 1015.7
20260901192254 35 360 1.6 14.5 0.00 0.00 0.00 47 1015.8
20260901192132 35 360 1.6 14.5 0.00 0.00 0.00 47 1015.8
20260901192033 35 360 1.6 14.5 0.00 0.00 0.00 48 1015.6
20260901191934 35 360 1.6 14.5 0.00 0.00 0.00 47 1015.8
20260901191834 35 360 1.6 14.5 0.00 0.00 0.00 48 1015.8
20260901191718 35 360 4.8 14.5 0.00 0.00 0.00 48 1015.8
20260901191638 35 360 6.4 14.5 0.00 0.00 0.00 48 1015.8
20260901191559 35 360 8.0 14.5 0.00 0.00 0.00 49 1015.8
20260901191438 35 360 6.4 14.5 0.00 0.00 0.00 49 1015.9
20260901191358 35 360 6.4 12.9 0.00 0.00 0.00 49 1015.9
20260901191257 35 360 4.8 12.9 0.00 0.00 0.00 49 1015.8
20260901191156 35 360 4.8 16.1 0.00 0.00 0.00 49 1015.8
20260901191036 35 360 6.4 16.1 0.00 0.00 0.00 49 1015.9
20260901190917 35 360 6.4 16.1 0.00 0.00 0.00 49 1015.9
20260901190820 35 360 4.8 16.1 0.00 0.00 0.00 49 1015.8
20260901190722 35 360 4.8 16.1 0.00 0.00 0.00 49 1015.9
20260901190624 34 34 4.8 16.1 0.00 0.00 0.00 49 1016.0
20260901190524 34 360 6.4 16.1 0.00 0.00 0.00 50 1015.9
20260901190422 34 360 6.4 16.1 0.00 0.00 0.00 50 1016.0
20260901190322 34 51 9.7 16.1 0.00 0.00 0.00 49 1016.0
20260901190227 34 360 11.3 16.1 0.00 0.00 0.00 49 1016.0
20260901190128 35 360 11.3 16.1 0.00 0.00 0.00 49 1016.0
20260901190048 35 360 9.7 16.1 0.00 0.00 0.00 49 1016.0
20260901185927 35 360 8.0 14.5 0.00 0.00 0.00 48 1016.0
20260901185849 35 360 8.0 14.5 0.00 0.00 0.00 49 1016.0
20260901185727 35 360 6.4 16.1 0.00 0.00 0.00 48 1016.0
20260901185628 36 360 4.8 16.1 0.00 0.00 0.00 47 1016.0
20260901185528 36 360 3.2 16.1 0.00 0.00 0.00 47 1016.0
20260901185433 36 360 3.2 16.1 0.00 0.00 0.00 47 1016.0
20260901185335 36 360 3.2 16.1 0.00 0.00 0.00 47 1016.0
20260901185234 36 360 4.8 20.9 0.00 0.00 0.00 47 1016.0
20260901185135 35 360 4.8 20.9 0.00 0.00 0.00 48 1016.1
20260901185035 35 317 6.4 20.9 0.00 0.00 0.00 48 1016.2
20260901184916 35 360 9.7 20.9 0.00 0.00 0.00 48 1016.2
20260901184840 35 360 11.3 20.9 0.00 0.00 0.00 48 1016.2
20260901184719 35 360 11.3 20.9 0.00 0.00 0.00 48 1016.2
20260901184619 35 360 11.3 20.9 0.00 0.00 0.00 48 1016.3
20260901184520 35 360 8.0 20.9 0.00 0.00 0.00 48 1016.3
20260901184420 35 360 6.4 20.9 0.00 0.00 0.00 49 1016.2
20260901184320 35 360 6.4 20.9 0.00 0.00 0.00 50 1016.3
20260901184221 35 360 9.7 20.9 0.00 0.00 0.00 50 1016.3
20260901184145 35 360 12.9 20.9 0.00 0.00 0.00 48 1016.4
20260901184025 35 360 12.9 20.9 0.00 0.00 0.00 49 1016.4
20260901183945 35 360 12.9 20.9 0.00 0.00 0.00 49 1016.4
20260901183825 35 360 12.9 20.9 0.00 0.00 0.00 49 1016.4
20260901183725 35 360 12.9 20.9 0.00 0.00 0.00 48 1016.4
20260901183626 36 360 8.0 19.3 0.00 0.00 0.00 48 1016.4
20260901183525 36 132 6.4 19.3 0.00 0.00 0.00 49 1016.4
20260901183426 35 360 4.8 19.3 0.00 0.00 0.00 49 1016.5
20260901183330 35 360 8.0 19.3 0.00 0.00 0.00 50 1016.6
20260901183231 35 360 8.0 19.3 0.00 0.00 0.00 50 1016.6
20260901183132 35 360 8.0 19.3 0.00 0.00 0.00 50 1016.6
20260901183032 35 360 6.4 19.3 0.00 0.00 0.00 50 1016.6
20260901182952 35 360 4.8 22.5 0.00 0.00 0.00 50 1016.6
20260901182833 35 360 6.4 22.5 0.00 0.00 0.00 53 1016.5
20260901182733 34 360 9.7 22.5 0.00 0.00 0.00 51 1016.6
20260901182617 34 360 11.3 22.5 0.00 0.00 0.00 51 1016.7
20260901182518 34 360 11.3 22.5 0.00 0.00 0.00 50 1016.6
20260901182438 35 360 11.3 22.5 0.00 0.00 0.00 51 1016.6
20260901182318 34 360 12.9 22.5 0.00 0.00 0.00 51 1016.6
20260901182219 34 98 11.3 22.5 0.00 0.00 0.00 51 1016.7
20260901182118 35 360 8.0 19.3 0.00 0.00 0.00 50 1016.6
20260901182020 35 360 6.4 17.7 0.00 0.00 0.00 51 1016.6
20260901181925 35 360 6.4 17.7 0.00 0.00 0.00 50 1016.6
20260901181825 35 360 9.7 17.7 0.00 0.00 0.00 50 1016.7
20260901181725 35 360 9.7 17.7 0.00 0.00 0.00 49 1016.8
20260901181626 35 360 8.0 19.3 0.00 0.00 0.00 48 1016.8
20260901181526 35 360 4.8 19.3 0.00 0.00 0.00 49 1016.8
20260901181427 35 360 4.8 19.3 0.00 0.00 0.00 50 1016.7
20260901181347 35 360 6.4 19.3 0.00 0.00 0.00 50 1016.8
20260901181231 35 360 8.0 19.3 0.00 0.00 0.00 50 1016.8
20260901181132 35 360 9.7 22.5 0.00 0.00 0.00 50 1016.8
20260901181032 35 360 9.7 22.5 0.00 0.00 0.00 50 1016.8
20260901180952 35 360 9.7 22.5 0.00 0.00 0.00 49 1016.8
20260901180852 35 360 9.7 22.5 0.00 0.00 0.00 49 1016.8
20260901180732 35 360 11.3 22.5 0.00 0.00 0.00 49 1016.9
20260901180632 35 360 11.3 19.3 0.00 0.00 0.00 48 1016.9
20260901180533 35 141 12.9 19.3 0.00 0.00 0.00 48 1016.9
20260901180417 35 360 9.7 17.7 0.00 0.00 0.00 48 1016.9
20260901180337 35 360 6.4 17.7 0.00 0.00 0.00 49 1016.9
20260901180216 35 360 4.8 17.7 0.00 0.00 0.00 48 1016.9
20260901180117 35 187 3.2 22.5 0.00 0.00 0.00 49 1017.0
20260901180018 35 360 4.8 24.1 0.00 0.00 0.00 50 1016.9
20260901175938 34 360 8.0 24.1 0.00 0.00 0.00 50 1017.0
20260901175839 34 360 9.7 24.1 0.00 0.00 0.00 49 1017.0
20260901175717 35 169 11.3 24.1 0.00 0.00 0.00 50 1017.1
20260901175621 34 360 11.3 24.1 0.00 0.00 0.00 51 1017.1
20260901175522 34 360 12.9 24.1 0.00 0.00 0.00 51 1017.1
20260901175422 34 360 14.5 24.1 0.00 0.00 0.00 51 1017.1
20260901175322 34 360 14.5 24.1 0.00 0.00 0.00 50 1017.2
20260901175223 34 360 12.9 24.1 0.00 0.00 0.00 50 1017.1
20260901175123 34 360 8.0 19.3 0.00 0.00 0.00 51 1017.1
20260901175028 34 360 6.4 17.7 0.00 0.00 0.00 51 1017.1
20260901174927 34 360 6.4 12.9 0.00 0.00 0.00 50 1017.1
20260901174828 35 84 6.4 12.9 0.00 0.00 0.00 50 1017.1
20260901174728 35 360 8.0 12.9 0.00 0.00 0.00 49 1017.2
20260901174628 35 101 6.4 19.3 0.00 0.00 0.00 49 1017.2
20260901174529 35 360 6.4 19.3 0.00 0.00 0.00 49 1017.2
20260901174430 35 360 6.4 19.3 0.00 0.00 0.00 49 1017.2
20260901174335 35 360 4.8 19.3 0.00 0.00 0.00 50 1017.2
20260901174255 35 360 4.8 19.3 0.00 0.00 0.00 49 1017.2
20260901174135 35 360 6.4 19.3 0.00 0.00 0.00 50 1017.2
20260901174035 35 360 6.4 19.3 0.00 0.00 0.00 49 1017.3
20260901173936 35 360 8.0 19.3 0.00 0.00 0.00 49 1017.3
20260901173835 35 360 6.4 19.3 0.00 0.00 0.00 50 1017.3
20260901173717 34 360 6.4 19.3 0.00 0.00 0.00 50 1017.3
20260901173622 34 360 6.4 19.3 0.00 0.00 0.00 51 1017.3
20260901173521 34 360 6.4 19.3 0.00 0.00 0.00 51 1017.4
20260901173421 34 81 8.0 19.3 0.00 0.00 0.00 50 1017.4
20260901173321 34 360 9.7 19.3 0.00 0.00 0.00 51 1017.4
20260901173222 34 360 11.3 19.3 0.00 0.00 0.00 50 1017.4
20260901173123 35 360 9.7 19.3 0.00 0.00 0.00 51 1017.4
20260901173024 35 360 8.0 19.3 0.00 0.00 0.00 51 1017.5
20260901172928 35 360 8.0 19.3 0.00 0.00 0.00 50 1017.4
20260901172832 35 360 6.4 17.7 0.00 0.00 0.00 52 1017.4
20260901172730 34 360 6.4 17.7 0.00 0.00 0.00 52 1017.5
20260901172631 34 360 8.0 17.7 0.00 0.00 0.00 52 1017.5
20260901172532 34 360 8.0 17.7 0.00 0.00 0.00 51 1017.4
20260901172434 34 360 8.0 17.7 0.00 0.00 0.00 51 1017.4
20260901172318 34 360 8.0 17.7 0.00 0.00 0.00 51 1017.4
20260901172220 34 360 6.4 17.7 0.00 0.00 0.00 51 1017.5
20260901172139 33 360 4.8 17.7 0.00 0.00 0.00 52 1017.5
20260901172019 34 360 3.2 17.7 0.00 0.00 0.00 52 1017.6
20260901171919 33 360 3.2 19.3 0.00 0.00 0.00 52 1017.5
20260901171818 33 360 4.8 19.3 0.00 0.00 0.00 53 1017.5
20260901171717 33 360 6.4 19.3 0.00 0.00 0.00 52 1017.6
20260901171622 33 360 6.4 19.3 0.00 0.00 0.00 52 1017.6
20260901171522 33 360 8.0 19.3 0.00 0.00 0.00 52 1017.5
20260901171423 33 360 8.0 19.3 0.00 0.00 0.00 52 1017.5
20260901171324 33 360 9.7 19.3 0.00 0.00 0.00 51 1017.5
20260901171225 33 360 12.9 19.3 0.00 0.00 0.00 52 1017.6
20260901171145 33 360 11.3 19.3 0.00 0.00 0.00 52 1017.6
20260901171025 33 360 11.3 19.3 0.00 0.00 0.00 52 1017.6
20260901170930 33 360 9.7 16.1 0.00 0.00 0.00 51 1017.6
20260901170830 33 360 8.0 16.1 0.00 0.00 0.00 51 1017.6
20260901170730 33 360 6.4 16.1 0.00 0.00 0.00 51 1017.7
20260901170630 33 360 6.4 16.1 0.00 0.00 0.00 51 1017.6
20260901170530 33 360 8.0 16.1 0.00 0.00 0.00 51 1017.6
20260901170430 33 360 9.7 16.1 0.00 0.00 0.00 51 1017.6
20260901170331 34 360 8.0 16.1 0.00 0.00 0.00 50 1017.6
20260901170251 35 360 4.8 16.1 0.00 0.00 0.00 49 1017.6
20260901170135 35 360 3.2 9.7 0.00 0.00 0.00 48 1017.6
20260901170031 35 360 3.2 8.0 0.00 0.00 0.00 50 1017.7
20260901165951 35 360 3.2 8.0 0.00 0.00 0.00 53 1017.7
20260901165832 35 360 3.2 8.0 0.00 0.00 0.00 53 1017.8
20260901165731 35 360 3.2 8.0 0.00 0.00 0.00 53 1017.8
20260901165632 35 360 3.2 8.0 0.00 0.00 0.00 54 1017.7
20260901165533 35 360 3.2 8.0 0.00 0.00 0.00 54 1017.7
20260901165417 33 360 4.8 8.0 0.00 0.00 0.00 55 1017.8
20260901165318 33 360 4.8 8.0 0.00 0.00 0.00 56 1017.9
20260901165218 33 360 4.8 8.0 0.00 0.00 0.00 56 1017.9
20260901165119 33 86 4.8 8.0 0.00 0.00 0.00 55 1017.9
20260901165020 34 85 4.8 8.0 0.00 0.00 0.00 55 1017.8
20260901164921 35 360 4.8 9.7 0.00 0.00 0.00 55 1017.9
20260901164841 34 360 3.2 9.7 0.00 0.00 0.00 57 1017.9
20260901164724 34 360 3.2 9.7 0.00 0.00 0.00 57 1017.9
20260901164625 33 62 3.2 14.5 0.00 0.00 0.00 57 1018.0
20260901164526 33 360 3.2 14.5 0.00 0.00 0.00 57 1017.9
20260901164427 33 360 3.2 14.5 0.00 0.00 0.00 57 1017.9
20260901164327 33 360 3.2 14.5 0.00 0.00 0.00 57 1017.9
20260901164227 33 360 4.8 19.3 0.00 0.00 0.00 57 1017.9
20260901164132 33 360 6.4 19.3 0.00 0.00 0.00 60 1017.9
20260901164033 33 360 6.4 19.3 0.00 0.00 0.00 59 1017.8
20260901163933 33 360 6.4 19.3 0.00 0.00 0.00 59 1017.8
20260901163834 33 360 6.4 19.3 0.00 0.00 0.00 59 1017.8
20260901163734 33 360 4.8 19.3 0.00 0.00 0.00 59 1017.9
20260901163635 33 360 4.8 19.3 0.00 0.00 0.00 59 1017.8
20260901163516 33 360 8.0 19.3 0.00 0.00 0.00 59 1017.9
20260901163421 33 142 9.7 19.3 0.00 0.00 0.00 59 1017.8
20260901163322 33 360 8.0 19.3 0.00 0.00 0.00 58 1017.9
20260901163222 34 360 4.8 19.3 0.00 0.00 0.00 58 1017.7
20260901163120 34 360 3.2 8.0 0.00 0.00 0.00 58 1017.8
20260901163020 34 360 1.6 8.0 0.00 0.00 0.00 59 1017.9
20260901162921 33 360 3.2 8.0 0.00 0.00 0.00 58 1018.0
20260901162827 34 360 3.2 8.0 0.00 0.00 0.00 58 1017.9
20260901162727 34 360 3.2 8.0 0.00 0.00 0.00 57 1017.9
20260901162628 34 360 1.6 8.0 0.00 0.00 0.00 57 1018.0
20260901162549 34 360 1.6 8.0 0.00 0.00 0.00 59 1018.0
20260901162429 33 360 3.2 9.7 0.00 0.00 0.00 59 1018.0
20260901162349 33 360 3.2 9.7 0.00 0.00 0.00 59 1018.1
20260901162228 33 360 3.2 9.7 0.00 0.00 0.00 60 1018.0
20260901162129 33 74 4.8 9.7 0.00 0.00 0.00 60 1018.1
20260901162034 33 360 6.4 9.7 0.00 0.00 0.00 58 1018.1
20260901161935 33 360 6.4 9.7 0.00 0.00 0.00 57 1018.1
20260901161835 34 360 4.8 9.7 0.00 0.00 0.00 58 1018.2
20260901161735 34 360 3.2 9.7 0.00 0.00 0.00 58 1018.2
20260901161636 34 360 1.6 8.0 0.00 0.00 0.00 59 1018.1
20260901161556 33 290 1.6 8.0 0.00 0.00 0.00 60 1018.2
20260901161420 33 360 3.2 8.0 0.00 0.00 0.00 60 1018.1
20260901161340 33 360 4.8 8.0 0.00 0.00 0.00 58 1018.2
20260901161220 33 360 4.8 8.0 0.00 0.00 0.00 58 1018.1
20260901161121 34 360 4.8 8.0 0.00 0.00 0.00 58 1018.1
20260901161022 34 360 4.8 8.0 0.00 0.00 0.00 57 1018.2
20260901160943 34 360 3.2 8.0 0.00 0.00 0.00 57 1018.2
20260901160822 34 360 3.2 8.0 0.00 0.00 0.00 57 1018.2
20260901160724 34 360 1.6 8.0 0.00 0.00 0.00 58 1018.1
20260901160628 34 360 1.6 8.0 0.00 0.00 0.00 58 1018.2
20260901160529 34 360 1.6 8.0 0.00 0.00 0.00 58 1018.2
20260901160429 33 360 1.6 8.0 0.00 0.00 0.00 58 1018.2
20260901160330 33 360 1.6 8.0 0.00 0.00 0.00 58 1018.2
20260901160252 33 360 3.2 8.0 0.00 0.00 0.00 60 1018.1
20260901160131 33 360 3.2 8.0 0.00 0.00 0.00 60 1018.2
20260901160016 33 350 3.2 8.0 0.00 0.00 0.00 60 1018.2
20260901155916 33 360 3.2 4.8 0.00 0.00 0.00 60 1018.2
20260901155818 32 360 3.2 6.4 0.00 0.00 0.00 60 1018.2
20260901155717 33 360 3.2 6.4 0.00 0.00 0.00 59 1018.2
20260901155617 33 60 3.2 9.7 0.00 0.00 0.00 58 1018.2
20260901155517 33 360 3.2 9.7 0.00 0.00 0.00 59 1018.2
20260901155418 33 360 3.2 9.7 0.00 0.00 0.00 59 1018.2
20260901155324 33 360 1.6 9.7 0.00 0.00 0.00 60 1018.2
20260901155223 33 360 3.2 9.7 0.00 0.00 0.00 61 1018.1
20260901155124 33 360 3.2 9.7 0.00 0.00 0.00 61 1018.2
20260901155025 32 32 4.8 9.7 0.00 0.00 0.00 61 1018.2
20260901154945 32 30 4.8 9.7 0.00 0.00 0.00 61 1018.1
20260901154825 32 360 4.8 9.7 0.00 0.00 0.00 61 1018.2
20260901154724 32 34 3.2 9.7 0.00 0.00 0.00 61 1018.2
20260901154625 32 360 3.2 9.7 0.00 0.00 0.00 61 1018.2
20260901154530 33 360 4.8 9.7 0.00 0.00 0.00 61 1018.2
20260901154431 32 360 6.4 9.7 0.00 0.00 0.00 61 1018.2
20260901154331 32 360 4.8 8.0 0.00 0.00 0.00 61 1018.1
20260901154232 33 360 4.8 8.0 0.00 0.00 0.00 61 1018.2
20260901154133 33 339 3.2 8.0 0.00 0.00 0.00 62 1018.1
20260901154034 33 360 3.2 8.0 0.00 0.00 0.00 61 1018.1
20260901153939 33 360 4.8 8.0 0.00 0.00 0.00 61 1018.1
20260901153820 33 61 3.2 8.0 0.00 0.00 0.00 61 1018.2
20260901153721 33 360 3.2 6.4 0.00 0.00 0.00 61 1018.1
20260901153622 33 360 3.2 6.4 0.00 0.00 0.00 62 1018.1
20260901153522 33 360 3.2 6.4 0.00 0.00 0.00 62 1018.1
20260901153423 33 360 3.2 6.4 0.00 0.00 0.00 62 1018.1
20260901153343 33 78 1.6 6.4 0.00 0.00 0.00 61 1018.1
20260901153243 33 360 1.6 6.4 0.00 0.00 0.00 62 1018.1
20260901153127 33 360 0.0 6.4 0.00 0.00 0.00 62 1018.1
20260901153025 33 360 0.0 8.0 0.00 0.00 0.00 62 1018.1
20260901152946 33 360 0.0 12.9 0.00 0.00 0.00 63 1018.1
20260901152847 32 360 0.0 12.9 0.00 0.00 0.00 63 1018.1
20260901152727 32 360 1.6 12.9 0.00 0.00 0.00 62 1018.1
20260901152627 32 360 3.2 12.9 0.00 0.00 0.00 62 1018.1
20260901152528 33 360 3.2 12.9 0.00 0.00 0.00 60 1018.1
20260901152427 33 360 4.8 12.9 0.00 0.00 0.00 60 1018.1
20260901152327 33 360 4.8 12.9 0.00 0.00 0.00 59 1018.0
20260901152232 34 360 4.8 12.9 0.00 0.00 0.00 59 1018.0
20260901152133 34 360 4.8 12.9 0.00 0.00 0.00 58 1018.1
20260901152033 35 360 3.2 9.7 0.00 0.00 0.00 59 1018.1
20260901151933 35 360 1.6 4.8 0.00 0.00 0.00 59 1018.0
20260901151833 34 360 1.6 4.8 0.00 0.00 0.00 60 1018.1
20260901151734 34 360 3.2 4.8 0.00 0.00 0.00 61 1018.1
20260901151638 33 360 1.6 4.8 0.00 0.00 0.00 62 1018.1
20260901151517 33 360 3.2 4.8 0.00 0.00 0.00 62 1018.1
20260901151418 33 360 1.6 4.8 0.00 0.00 0.00 63 1018.2
20260901151318 33 225 1.6 4.8 0.00 0.00 0.00 64 1018.1
20260901151219 32 360 1.6 6.4 0.00 0.00 0.00 66 1018.2
20260901151119 32 117 1.6 6.4 0.00 0.00 0.00 66 1018.1
20260901151019 32 117 1.6 6.4 0.00 0.00 0.00 65 1018.1
20260901150925 32 360 1.6 6.4 0.00 0.00 0.00 67 1018.1
20260901150826 32 360 0.0 6.4 0.00 0.00 0.00 67 1018.1
20260901150727 31 360 1.6 9.7 0.00 0.00 0.00 67 1018.1
20260901150627 31 360 1.6 9.7 0.00 0.00 0.00 68 1018.1
20260901150527 31 360 3.2 9.7 0.00 0.00 0.00 68 1018.2
20260901150428 31 360 3.2 9.7 0.00 0.00 0.00 68 1018.1
20260901150350 31 360 3.2 9.7 0.00 0.00 0.00 68 1018.2
20260901150232 31 360 3.2 9.7 0.00 0.00 0.00 69 1018.2
20260901150131 31 360 3.2 9.7 0.00 0.00 0.00 70 1018.2
20260901150031 30 360 4.8 9.7 0.00 0.00 0.00 70 1018.1
20260901145932 30 360 6.4 9.7 0.00 0.00 0.00 69 1018.2
20260901145853 30 360 6.4 9.7 0.00 0.00 0.00 68 1018.1
20260901145732 31 360 4.8 9.7 0.00 0.00 0.00 68 1018.2
20260901145633 31 360 3.2 8.0 0.00 0.00 0.00 68 1018.3
20260901145517 31 142 3.2 8.0 0.00 0.00 0.00 68 1018.2
20260901145418 31 360 3.2 8.0 0.00 0.00 0.00 66 1018.2
20260901145319 31 360 3.2 8.0 0.00 0.00 0.00 66 1018.2
20260901145239 32 143 3.2 8.0 0.00 0.00 0.00 65 1018.2
20260901145119 32 144 1.6 8.0 0.00 0.00 0.00 65 1018.2
20260901145019 32 360 0.0 4.8 0.00 0.00 0.00 65 1018.2
20260901144920 32 360 0.0 4.8 0.00 0.00 0.00 66 1018.2
20260901144824 32 360 0.0 4.8 0.00 0.00 0.00 66 1018.2
20260901144725 32 360 1.6 4.8 0.00 0.00 0.00 66 1018.3
20260901144645 32 360 1.6 4.8 0.00 0.00 0.00 67 1018.2
20260901144544 31 360 1.6 4.8 0.00 0.00 0.00 67 1018.3
20260901144424 31 360 1.6 4.8 0.00 0.00 0.00 66 1018.2
20260901144324 32 360 1.6 6.4 0.00 0.00 0.00 65 1018.2
20260901144225 32 360 1.6 8.0 0.00 0.00 0.00 66 1018.2
20260901144129 32 360 3.2 8.0 0.00 0.00 0.00 67 1018.2
20260901144029 31 360 1.6 8.0 0.00 0.00 0.00 67 1018.3
20260901143929 31 360 1.6 8.0 0.00 0.00 0.00 67 1018.3
20260901143830 31 360 1.6 8.0 0.00 0.00 0.00 66 1018.2
20260901143752 32 360 3.2 8.0 0.00 0.00 0.00 65 1018.2
20260901143631 32 360 3.2 8.0 0.00 0.00 0.00 65 1018.3
20260901143532 32 360 4.8 9.7 0.00 0.00 0.00 65 1018.2
20260901143416 32 360 4.8 9.7 0.00 0.00 0.00 64 1018.3
20260901143316 33 360 3.2 9.7 0.00 0.00 0.00 64 1018.2
20260901143216 33 360 3.2 9.7 0.00 0.00 0.00 65 1018.2
20260901143116 33 284 3.2 9.7 0.00 0.00 0.00 65 1018.2
20260901143017 32 275 3.2 9.7 0.00 0.00 0.00 66 1018.3
20260901142916 32 360 4.8 9.7 0.00 0.00 0.00 66 1018.2
20260901142823 32 360 4.8 9.7 0.00 0.00 0.00 67 1018.2
20260901142723 32 360 4.8 8.0 0.00 0.00 0.00 67 1018.2
20260901142623 32 360 3.2 6.4 0.00 0.00 0.00 67 1018.2
20260901142523 32 360 3.2 6.4 0.00 0.00 0.00 67 1018.2
20260901142424 32 258 3.2 6.4 0.00 0.00 0.00 68 1018.3
20260901142326 32 302 3.2 8.0 0.00 0.00 0.00 67 1018.3
20260901142227 32 360 1.6 8.0 0.00 0.00 0.00 68 1018.2
20260901142132 32 360 1.6 8.0 0.00 0.00 0.00 69 1018.3
20260901142032 31 360 1.6 8.0 0.00 0.00 0.00 69 1018.3
20260901141932 31 360 3.2 8.0 0.00 0.00 0.00 69 1018.3
20260901141832 31 268 4.8 8.0 0.00 0.00 0.00 70 1018.3
20260901141733 31 269 4.8 8.0 0.00 0.00 0.00 70 1018.3
20260901141634 31 360 3.2 8.0 0.00 0.00 0.00 70 1018.3
20260901141554 31 360 3.2 8.0 0.00 0.00 0.00 70 1018.3
20260901141437 31 360 1.6 8.0 0.00 0.00 0.00 70 1018.3
20260901141317 31 360 3.2 8.0 0.00 0.00 0.00 71 1018.3
20260901141217 31 360 3.2 9.7 0.00 0.00 0.00 72 1018.4
20260901141118 31 360 3.2 9.7 0.00 0.00 0.00 72 1018.4
20260901141018 30 360 3.2 9.7 0.00 0.00 0.00 72 1018.4
20260901140918 30 360 3.2 9.7 0.00 0.00 0.00 72 1018.4
20260901140819 30 317 3.2 9.7 0.00 0.00 0.00 72 1018.4
20260901140724 30 325 4.8 9.7 0.00 0.00 0.00 72 1018.3
20260901140625 30 325 4.8 9.7 0.00 0.00 0.00 72 1018.4
20260901140526 30 323 4.8 9.7 0.00 0.00 0.00 73 1018.4
20260901140426 30 313 3.2 9.7 0.00 0.00 0.00 73 1018.4
20260901140327 30 360 3.2 9.7 0.00 0.00 0.00 73 1018.4
20260901140248 30 360 4.8 9.7 0.00 0.00 0.00 73 1018.4
20260901140127 30 360 4.8 9.7 0.00 0.00 0.00 73 1018.4
20260901140032 30 329 4.8 9.7 0.00 0.00 0.00 73 1018.4
20260901135933 30 360 3.2 9.7 0.00 0.00 0.00 73 1018.4
20260901135835 30 304 3.2 9.7 0.00 0.00 0.00 73 1018.4
20260901135733 30 308 3.2 9.7 0.00 0.00 0.00 73 1018.5
20260901135633 30 360 1.6 8.0 0.00 0.00 0.00 73 1018.5
20260901135533 30 304 3.2 6.4 0.00 0.00 0.00 73 1018.5
20260901135418 30 360 3.2 6.4 0.00 0.00 0.00 75 1018.4
20260901135318 30 360 3.2 6.4 0.00 0.00 0.00 75 1018.4
20260901135218 30 360 3.2 6.4 0.00 0.00 0.00 75 1018.4
20260901135138 29 309 3.2 6.4 0.00 0.00 0.00 76 1018.5
20260901135018 29 309 3.2 6.4 0.00 0.00 0.00 76 1018.4
20260901134917 29 311 3.2 6.4 0.00 0.00 0.00 76 1018.5
20260901134819 28 315 3.2 4.8 0.00 0.00 0.00 76 1018.4
20260901134723 29 360 3.2 4.8 0.00 0.00 0.00 76 1018.4
20260901134624 29 315 3.2 4.8 0.00 0.00 0.00 76 1018.4
20260901134524 29 316 3.2 4.8 0.00 0.00 0.00 76 1018.3
20260901134425 29 315 1.6 4.8 0.00 0.00 0.00 76 1018.3
20260901134345 28 315 1.6 3.2 0.00 0.00 0.00 77 1018.3
20260901134224 28 315 1.6 3.2 0.00 0.00 0.00 77 1018.2
20260901134123 28 360 1.6 3.2 0.00 0.00 0.00 78 1018.3
20260901134024 28 315 1.6 3.2 0.00 0.00 0.00 78 1018.3
20260901133929 28 315 1.6 3.2 0.00 0.00 0.00 79 1018.2
20260901133830 28 360 0.0 3.2 0.00 0.00 0.00 79 1018.2
20260901133749 28 360 0.0 3.2 0.00 0.00 0.00 80 1018.3
20260901133629 28 316 1.6 4.8 0.00 0.00 0.00 80 1018.1
20260901133530 27 315 1.6 4.8 0.00 0.00 0.00 80 1018.1
20260901133450 27 316 1.6 4.8 0.00 0.00 0.00 81 1018.1
20260901133329 27 316 1.6 4.8 0.00 0.00 0.00 81 1018.1
20260901133235 27 316 1.6 4.8 0.00 0.00 0.00 81 1018.2
20260901133134 27 317 1.6 4.8 0.00 0.00 0.00 81 1018.1
20260901133035 27 317 3.2 4.8 0.00 0.00 0.00 82 1018.1
20260901132935 27 316 3.2 4.8 0.00 0.00 0.00 82 1018.1
20260901132837 27 317 3.2 4.8 0.00 0.00 0.00 82 1018.1
20260901132735 27 313 3.2 4.8 0.00 0.00 0.00 82 1018.1
20260901132656 27 314 1.6 4.8 0.00 0.00 0.00 82 1018.1
20260901132520 26 315 3.2 4.8 0.00 0.00 0.00 82 1018.1
20260901132421 26 315 3.2 4.8 0.00 0.00 0.00 83 1018.0
20260901132322 26 315 3.2 4.8 0.00 0.00 0.00 83 1018.0
20260901132221 26 309 3.2 4.8 0.00 0.00 0.00 84 1018.1
20260901132122 26 309 1.6 4.8 0.00 0.00 0.00 84 1018.0
20260901132023 26 309 3.2 4.8 0.00 0.00 0.00 84 1018.0
20260901131923 26 309 3.2 4.8 0.00 0.00 0.00 84 1018.0
20260901131849 26 309 1.6 4.8 0.00 0.00 0.00 84 1018.0
20260901131727 26 360 3.2 4.8 0.00 0.00 0.00 84 1018.0
20260901131628 26 307 1.6 4.8 0.00 0.00 0.00 84 1018.0
20260901131530 26 308 1.6 4.8 0.00 0.00 0.00 84 1018.0
20260901131430 26 308 0.0 4.8 0.00 0.00 0.00 84 1017.9
20260901131330 26 308 1.6 4.8 0.00 0.00 0.00 85 1018.0
20260901131231 26 360 1.6 4.8 0.00 0.00 0.00 85 1017.9
20260901131155 26 309 1.6 6.4 0.00 0.00 0.00 85 1017.9
20260901131055 26 309 1.6 6.4 0.00 0.00 0.00 85 1017.9
20260901130935 26 360 1.6 6.4 0.00 0.00 0.00 85 1017.9
20260901130836 25 306 1.6 6.4 0.00 0.00 0.00 85 1017.9
20260901130735 26 306 3.2 6.4 0.00 0.00 0.00 85 1017.9
20260901130636 25 306 3.2 6.4 0.00 0.00 0.00 85 1017.8
20260901130535 25 306 3.2 6.4 0.00 0.00 0.00 86 1017.9
20260901130435 25 304 3.2 6.4 0.00 0.00 0.00 86 1017.9
20260901130320 25 304 3.2 6.4 0.00 0.00 0.00 86 1017.8
20260901130219 25 360 3.2 4.8 0.00 0.00 0.00 86 1017.8
20260901130120 25 360 3.2 4.8 0.00 0.00 0.00 86 1017.7
20260901130021 25 360 3.2 4.8 0.00 0.00 0.00 86 1017.8
20260901125942 25 360 3.2 4.8 0.00 0.00 0.00 86 1017.8
20260901125823 25 360 3.2 4.8 0.00 0.00 0.00 86 1017.8
20260901125722 25 360 3.2 4.8 0.00 0.00 0.00 86 1017.9
20260901125627 25 360 3.2 4.8 0.00 0.00 0.00 87 1017.8
20260901125527 25 360 3.2 4.8 0.00 0.00 0.00 86 1017.7
20260901125427 25 360 1.6 3.2 0.00 0.00 0.00 87 1017.7
20260901125328 25 360 1.6 3.2 0.00 0.00 0.00 87 1017.7
20260901125228 25 360 3.2 3.2 0.00 0.00 0.00 87 1017.8
20260901125149 25 360 1.6 3.2 0.00 0.00 0.00 87 1017.7
20260901125028 25 360 1.6 3.2 0.00 0.00 0.00 87 1017.7
20260901124933 25 360 1.6 3.2 0.00 0.00 0.00 87 1017.7
20260901124834 25 360 1.6 3.2 0.00 0.00 0.00 87 1017.7
20260901124734 25 360 1.6 3.2 0.00 0.00 0.00 87 1017.7
20260901124635 25 360 1.6 3.2 0.00 0.00 0.00 87 1017.6
20260901124535 25 360 1.6 3.2 0.00 0.00 0.00 88 1017.7
20260901124416 24 360 1.6 3.2 0.00 0.00 0.00 88 1017.6
20260901124321 24 360 1.6 3.2 0.00 0.00 0.00 88 1017.5
20260901124222 24 360 1.6 3.2 0.00 0.00 0.00 88 1017.6
20260901124122 24 360 0.0 3.2 0.00 0.00 0.00 88 1017.6
20260901124023 24 360 0.0 0.0 0.00 0.00 0.00 88 1017.6
20260901123923 24 360 0.0 0.0 0.00 0.00 0.00 88 1017.6
20260901123823 24 360 0.0 0.0 0.00 0.00 0.00 88 1017.5
20260901123728 24 360 0.0 0.0 0.00 0.00 0.00 88 1017.5
20260901123628 24 360 0.0 0.0 0.00 0.00 0.00 88 1017.5
20260901123529 24 360 0.0 0.0 0.00 0.00 0.00 88 1017.5
20260901123429 24 360 0.0 0.0 0.00 0.00 0.00 88 1017.5
20260901123329 24 360 0.0 0.0 0.00 0.00 0.00 88 1017.5
20260901123229 24 360 0.0 0.0 0.00 0.00 0.00 88 1017.5
20260901123130 24 360 0.0 0.0 0.00 0.00 0.00 88 1017.5
20260901123034 24 360 0.0 0.0 0.00 0.00 0.00 87 1017.5
20260901122934 24 360 0.0 0.0 0.00 0.00 0.00 87 1017.4
20260901122817 24 360 0.0 0.0 0.00 0.00 0.00 87 1017.5
20260901122717 24 360 0.0 0.0 0.00 0.00 0.00 87 1017.4
20260901122617 23 360 0.0 0.0 0.00 0.00 0.00 87 1017.4
20260901122518 23 360 0.0 0.0 0.00 0.00 0.00 87 1017.4
20260901122439 24 360 0.0 0.0 0.00 0.00 0.00 87 1017.4
20260901122322 23 360 0.0 1.6 0.00 0.00 0.00 87 1017.4
20260901122223 23 360 0.0 1.6 0.00 0.00 0.00 87 1017.4
20260901122124 24 360 0.0 1.6 0.00 0.00 0.00 87 1017.4
20260901122024 24 360 0.0 1.6 0.00 0.00 0.00 87 1017.4
20260901121925 24 360 0.0 1.6 0.00 0.00 0.00 87 1017.4
20260901121824 24 360 0.0 3.2 0.00 0.00 0.00 87 1017.4
20260901121745 24 360 0.0 3.2 0.00 0.00 0.00 87 1017.4
20260901121625 24 360 0.0 3.2 0.00 0.00 0.00 87 1017.3
20260901121529 24 360 0.0 3.2 0.00 0.00 0.00 87 1017.4
20260901121450 24 360 0.0 3.2 0.00 0.00 0.00 87 1017.3
20260901121330 24 360 0.0 3.2 0.00 0.00 0.00 87 1017.4
20260901121231 24 360 0.0 3.2 0.00 0.00 0.00 87 1017.3
20260901121131 24 360 0.0 3.2 0.00 0.00 0.00 87 1017.4
20260901121031 24 360 0.0 3.2 0.00 0.00 0.00 87 1017.4
20260901120916 24 360 0.0 3.2 0.00 0.00 0.00 87 1017.4
20260901120816 24 360 0.0 1.6 0.00 0.00 0.00 87 1017.3
20260901120717 24 360 0.0 0.0 0.00 0.00 0.00 87 1017.4
20260901120617 24 360 0.0 0.0 0.00 0.00 0.00 87 1017.4
20260901120518 24 360 0.0 0.0 0.00 0.00 0.00 87 1017.4
20260901120438 24 360 0.0 0.0 0.00 0.00 0.00 87 1017.4
20260901120319 24 360 0.0 0.0 0.00 0.00 0.00 87 1017.4
20260901120224 24 360 0.0 0.0 0.00 0.00 0.00 87 1017.4
20260901120124 24 360 0.0 3.2 0.00 0.00 0.00 87 1017.4
20260901120044 24 360 0.0 3.2 0.00 0.00 0.00 87 1017.3
20260901115923 24 360 0.0 3.2 0.00 0.00 0.00 87 1017.4
20260901115846 24 360 0.0 3.2 0.00 0.00 0.00 87 1017.4
20260901115744 24 360 0.0 3.2 0.00 0.00 0.00 87 1017.4
20260901115624 24 360 0.0 3.2 0.00 0.00 0.00 87 1017.4
20260901115525 24 360 0.0 3.2 0.00 0.00 0.00 86 1017.4
20260901115429 24 360 1.6 3.2 0.00 0.00 0.00 86 1017.4
20260901115330 24 360 1.6 3.2 0.00 0.00 0.00 86 1017.4
20260901115250 24 360 1.6 3.2 0.00 0.00 0.00 86 1017.4
20260901115130 24 360 1.6 3.2 0.00 0.00 0.00 86 1017.4
20260901115030 24 360 1.6 3.2 0.00 0.00 0.00 86 1017.4
20260901114930 24 360 1.6 3.2 0.00 0.00 0.00 86 1017.4
20260901114831 24 360 1.6 3.2 0.00 0.00 0.00 86 1017.5
20260901114735 24 360 1.6 3.2 0.00 0.00 0.00 86 1017.4
20260901114635 24 360 1.6 3.2 0.00 0.00 0.00 86 1017.4
20260901114516 24 360 1.6 3.2 0.00 0.00 0.00 86 1017.4
20260901114417 24 360 3.2 3.2 0.00 0.00 0.00 86 1017.4
20260901114317 24 360 3.2 3.2 0.00 0.00 0.00 86 1017.4
20260901114217 24 360 3.2 3.2 0.00 0.00 0.00 86 1017.3
20260901114122 24 360 1.6 3.2 0.00 0.00 0.00 86 1017.4
20260901114023 24 360 1.6 3.2 0.00 0.00 0.00 86 1017.3
20260901113924 24 360 1.6 3.2 0.00 0.00 0.00 86 1017.4
20260901113825 24 360 1.6 3.2 0.00 0.00 0.00 86 1017.3
20260901113726 24 360 1.6 3.2 0.00 0.00 0.00 86 1017.3
20260901113627 24 360 1.6 3.2 0.00 0.00 0.00 86 1017.3
20260901113529 24 360 1.6 3.2 0.00 0.00 0.00 86 1017.3
20260901113454 24 360 1.6 3.2 0.00 0.00 0.00 86 1017.3
20260901113353 24 360 1.6 3.2 0.00 0.00 0.00 86 1017.3
20260901113252 24 360 1.6 3.2 0.00 0.00 0.00 87 1017.3
20260901113132 24 360 1.6 3.2 0.00 0.00 0.00 86 1017.3
20260901113032 24 360 1.6 3.2 0.00 0.00 0.00 86 1017.2
20260901112932 24 360 1.6 3.2 0.00 0.00 0.00 86 1017.3
20260901112853 24 360 1.6 3.2 0.00 0.00 0.00 86 1017.3
20260901112732 24 360 3.2 3.2 0.00 0.00 0.00 86 1017.2
20260901112637 24 360 3.2 3.2 0.00 0.00 0.00 86 1017.3
20260901112517 24 360 3.2 3.2 0.00 0.00 0.00 86 1017.3
20260901112417 25 360 1.6 3.2 0.00 0.00 0.00 86 1017.2
20260901112317 25 360 1.6 3.2 0.00 0.00 0.00 86 1017.2
20260901112239 25 360 0.0 3.2 0.00 0.00 0.00 86 1017.2
20260901112118 25 360 0.0 3.2 0.00 0.00 0.00 86 1017.1
20260901112019 25 360 0.0 3.2 0.00 0.00 0.00 86 1017.3
20260901111940 25 360 0.0 3.2 0.00 0.00 0.00 86 1017.2
20260901111823 25 360 1.6 3.2 0.00 0.00 0.00 86 1017.1
20260901111744 25 360 1.6 3.2 0.00 0.00 0.00 86 1017.2
20260901111623 25 360 1.6 3.2 0.00 0.00 0.00 86 1017.2
20260901111544 25 360 1.6 3.2 0.00 0.00 0.00 86 1017.2
20260901111443 25 360 1.6 3.2 0.00 0.00 0.00 86 1017.2
20260901111323 25 360 0.0 3.2 0.00 0.00 0.00 86 1017.2
20260901111224 25 360 0.0 3.2 0.00 0.00 0.00 86 1017.2
20260901111144 25 360 0.0 3.2 0.00 0.00 0.00 86 1017.2
20260901111044 25 360 0.0 3.2 0.00 0.00 0.00 86 1017.2
20260901110927 25 360 0.0 3.2 0.00 0.00 0.00 86 1017.2
20260901110827 25 360 0.0 3.2 0.00 0.00 0.00 86 1017.2
20260901110728 25 360 1.6 3.2 0.00 0.00 0.00 86 1017.2
20260901110629 25 360 0.0 3.2 0.00 0.00 0.00 86 1017.2
20260901110529 25 360 0.0 3.2 0.00 0.00 0.00 86 1017.2
20260901110429 25 360 0.0 3.2 0.00 0.00 0.00 86 1017.2
20260901110350 25 360 0.0 3.2 0.00 0.00 0.00 86 1017.1
20260901110233 25 360 0.0 3.2 0.00 0.00 0.00 86 1017.1
20260901110133 25 360 0.0 3.2 0.00 0.00 0.00 86 1017.1
20260901110054 25 360 0.0 3.2 0.00 0.00 0.00 86 1017.1
20260901105933 25 360 1.6 3.2 0.00 0.00 0.00 86 1017.1
20260901105836 25 360 1.6 3.2 0.00 0.00 0.00 86 1017.1
20260901105735 25 360 1.6 3.2 0.00 0.00 0.00 86 1017.1
20260901105618 25 360 1.6 4.8 0.00 0.00 0.00 86 1017.1
20260901105519 25 360 1.6 8.0 0.00 0.00 0.00 86 1017.1
20260901105419 25 360 1.6 8.0 0.00 0.00 0.00 86 1017.0
20260901105320 25 360 0.0 8.0 0.00 0.00 0.00 86 1017.0
20260901105221 25 360 0.0 8.0 0.00 0.00 0.00 86 1017.1
20260901105122 25 360 0.0 8.0 0.00 0.00 0.00 86 1017.1
20260901105023 25 360 1.6 8.0 0.00 0.00 0.00 86 1017.1
20260901104928 25 360 1.6 8.0 0.00 0.00 0.00 86 1017.1
20260901104828 25 360 3.2 8.0 0.00 0.00 0.00 86 1017.1
20260901104729 25 360 3.2 8.0 0.00 0.00 0.00 86 1017.1
20260901104629 25 360 3.2 8.0 0.00 0.00 0.00 86 1017.1
20260901104531 25 360 3.2 8.0 0.00 0.00 0.00 86 1017.1
20260901104431 25 360 3.2 8.0 0.00 0.00 0.00 86 1017.0
20260901104332 25 360 3.2 8.0 0.00 0.00 0.00 86 1017.0
20260901104235 25 360 3.2 8.0 0.00 0.00 0.00 86 1017.0
20260901104116 25 360 3.2 8.0 0.00 0.00 0.00 86 1017.0
20260901104017 25 360 3.2 6.4 0.00 0.00 0.00 86 1017.1
20260901103918 25 360 3.2 6.4 0.00 0.00 0.00 86 1017.1
20260901103818 25 360 3.2 6.4 0.00 0.00 0.00 86 1017.1
20260901103719 25 360 3.2 6.4 0.00 0.00 0.00 86 1017.1
20260901103625 25 360 3.2 6.4 0.00 0.00 0.00 86 1017.0
20260901103525 25 360 3.2 6.4 0.00 0.00 0.00 86 1017.1
20260901103425 25 360 3.2 6.4 0.00 0.00 0.00 86 1017.1
20260901103326 25 360 3.2 8.0 0.00 0.00 0.00 86 1016.9
20260901103226 25 360 1.6 8.0 0.00 0.00 0.00 86 1017.0
20260901103127 25 360 1.6 8.0 0.00 0.00 0.00 86 1017.0
20260901103027 25 360 1.6 8.0 0.00 0.00 0.00 86 1017.0
20260901102932 25 360 1.6 8.0 0.00 0.00 0.00 85 1017.0
20260901102834 25 360 1.6 8.0 0.00 0.00 0.00 85 1017.0
20260901102734 25 360 3.2 8.0 0.00 0.00 0.00 85 1017.1
20260901102655 25 360 3.2 8.0 0.00 0.00 0.00 85 1017.1
20260901102555 25 360 3.2 8.0 0.00 0.00 0.00 85 1017.0
20260901102434 25 360 1.6 8.0 0.00 0.00 0.00 85 1017.0
20260901102334 25 360 3.2 8.0 0.00 0.00 0.00 85 1017.0
20260901102241 25 360 3.2 8.0 0.00 0.00 0.00 85 1017.0
20260901102121 25 360 4.8 8.0 0.00 0.00 0.00 85 1017.1
20260901102021 25 360 3.2 8.0 0.00 0.00 0.00 85 1017.0
20260901101921 25 360 3.2 8.0 0.00 0.00 0.00 85 1017.0
20260901101823 25 360 3.2 6.4 0.00 0.00 0.00 85 1017.1
20260901101744 25 360 3.2 6.4 0.00 0.00 0.00 85 1017.0
20260901101624 25 360 3.2 6.4 0.00 0.00 0.00 85 1017.0
20260901101528 25 360 1.6 6.4 0.00 0.00 0.00 85 1017.1
20260901101429 25 360 1.6 6.4 0.00 0.00 0.00 85 1017.0
20260901101329 25 360 1.6 6.4 0.00 0.00 0.00 85 1017.1
20260901101250 25 360 1.6 6.4 0.00 0.00 0.00 84 1017.0
20260901101130 25 360 1.6 6.4 0.00 0.00 0.00 84 1017.0
20260901101051 25 360 3.2 9.7 0.00 0.00 0.00 84 1017.0
20260901100930 25 360 3.2 9.7 0.00 0.00 0.00 84 1017.0
20260901100831 25 360 3.2 9.7 0.00 0.00 0.00 84 1017.0
20260901100735 25 360 3.2 9.7 0.00 0.00 0.00 84 1017.0
20260901100636 25 360 3.2 9.7 0.00 0.00 0.00 84 1017.1
20260901100534 25 360 1.6 9.7 0.00 0.00 0.00 84 1017.0
20260901100434 25 360 1.6 9.7 0.00 0.00 0.00 84 1017.1
20260901100334 25 360 1.6 9.7 0.00 0.00 0.00 84 1017.0
20260901100235 25 360 1.6 9.7 0.00 0.00 0.00 84 1017.1
20260901100120 25 360 4.8 9.7 0.00 0.00 0.00 84 1017.1
20260901100020 25 360 4.8 9.7 0.00 0.00 0.00 84 1017.1
20260901095921 25 360 3.2 8.0 0.00 0.00 0.00 85 1017.2
20260901095823 25 360 3.2 8.0 0.00 0.00 0.00 85 1017.2
20260901095722 25 360 1.6 4.8 0.00 0.00 0.00 84 1017.2
20260901095623 25 360 1.6 4.8 0.00 0.00 0.00 84 1017.2
20260901095524 25 360 1.6 4.8 0.00 0.00 0.00 84 1017.2
20260901095426 25 188 1.6 8.0 0.00 0.00 0.00 84 1017.2
20260901095347 25 360 3.2 8.0 0.00 0.00 0.00 84 1017.3
20260901095227 25 360 1.6 8.0 0.00 0.00 0.00 84 1017.2
20260901095128 25 360 1.6 8.0 0.00 0.00 0.00 84 1017.3
20260901095029 25 360 1.6 8.0 0.00 0.00 0.00 84 1017.2
20260901094948 25 360 1.6 8.0 0.00 0.00 0.00 84 1017.2
20260901094828 25 360 3.2 8.0 0.00 0.00 0.00 84 1017.3
20260901094728 25 360 4.8 8.0 0.00 0.00 0.00 84 1017.3
20260901094633 25 360 3.2 9.7 0.00 0.00 0.00 84 1017.3
20260901094554 25 360 3.2 9.7 0.00 0.00 0.00 84 1017.3
20260901094433 25 360 3.2 9.7 0.00 0.00 0.00 84 1017.3
20260901094333 25 360 3.2 9.7 0.00 0.00 0.00 84 1017.3
20260901094235 25 360 3.2 9.7 0.00 0.00 0.00 84 1017.3
20260901094135 25 360 3.2 9.7 0.00 0.00 0.00 84 1017.3
20260901094020 25 360 3.2 9.7 0.00 0.00 0.00 84 1017.3
20260901093919 25 360 4.8 9.7 0.00 0.00 0.00 84 1017.3
20260901093820 25 360 3.2 8.0 0.00 0.00 0.00 84 1017.3
20260901093742 25 360 3.2 8.0 0.00 0.00 0.00 84 1017.4
20260901093621 25 360 3.2 8.0 0.00 0.00 0.00 83 1017.3
20260901093521 25 360 3.2 8.0 0.00 0.00 0.00 83 1017.4
20260901093423 25 360 4.8 8.0 0.00 0.00 0.00 83 1017.4
20260901093322 25 360 6.4 8.0 0.00 0.00 0.00 83 1017.4
20260901093227 25 360 4.8 8.0 0.00 0.00 0.00 83 1017.4
20260901093148 25 360 4.8 8.0 0.00 0.00 0.00 83 1017.4